GFSFLT1_prec_cloud_003.txt.gz
Cloud_Cover
0 69 12 44 0 0 0 0 4 22 0 1 56 0 0 0 0 0 0 8 0 0 0 0 0 0 0 0 0 0 0 0 0
0 0 33 3 2 1 0 0 1 9 0 6 6 0 0 0 0 0 4 0 0 0 0 0 0 0 0 0 0 0 0 0 0
0 19 73 5 0 0 0 0 0 4 0 0 0 0 0 0 0 0 0 0 0 0 0 0 0 0 0 0 0 0 0 0 0
0 73 29 6 0 0 0 0 0 0 0 0 0 0 0 0 0 0 0 0 0 0 1 0 0 0 0 0 0 0 0 0 0
0 0 15 0 0 0 0 0 0 0 0 0 0 0 0 0 0 0 0 0 0 0 4 5 4 0 0 0 0 0 0 0 0
2 12 0 0 0 0 0 0 0 0 0 0 0 0 0 0 0 0 0 0 0 0 2 25 5 4 1 1 0 1 3 0 0
9 1 0 0 0 0 0 0 0 0 0 0 0 0 0 0 0 0 0 0 0 0 5 4 5 5 4 3 4 0 0 0 0
0 0 0 0 0 0 0 0 0 0 0 0 0 0 0 5 6 3 2 4 5 5 100 100 23 5 56 44 90 8 4 5 4
0 0 0 0 0 0 0 0 0 0 0 2 5 26 27 78 72 17 16 5 6 69 100 100 100 6 96 84 61 100 100 97 92
0 0 0 0 0 0 0 3 5 1 5 2 0 1 10 54 100 100 100 47 68 100 100 100 100 98 12 44 100 100 100 100 100
3 1 0 0 2 0 4 5 5 5 5 4 10 65 2 1 12 100 99 94 100 100 100 100 100 46 11 100 36 100 100 100 100
0 3 5 62 78 30 62 91 100 100 81 95 100 100 99 4 19 5 5 99 100 100 100 100 100 100 100 100 84 100 100 100 100
5 4 3 34 98 84 28 56 5 44 59 51 100 95 73 5 5 5 5 41 85 100 100 100 100 100 100 100 87 100 83 100 100
5 3 17 99 100 100 92 41 76 100 100 23 40 84 80 57 52 78 85 100 100 100 100 100 100 100 100 100 100 100 100 100 100
100 100 100 80 50 13 13 20 100 68 28 63 89 99 100 100 100 100 100 100 100 100 100 100 100 100 100 100 100 100 100 100 100
5 5 5 29 5 32 8 5 5 5 5 5 8 99 100 100 100 100 100 100 100 100 100 100 100 100 100 100 100 100 100 100 100
5 34 6 3 12 9 65 7 19 18 44 17 32 83 77 70 91 99 97 100 100 100 100 100 100 100 100 100 100 100 100 100 100
5 4 6 5 19 15 9 32 73 100 90 52 42 83 87 64 99 99 97 76 96 100 100 100 100 100 100 100 100 100 100 100 100
5 44 14 5 16 17 46 99 100 100 92 95 100 85 64 100 100 100 100 100 100 100 100 100 100 100 100 100 100 100 100 100 100
0 0 0 15 22 23 24 25 93 100 100 66 100 100 100 100 100 99 99 100 100 100 100 100 100 100 100 100 100 100 100 100 100

GFSFLT1_prec_cloud_006.txt.gz
Cloud_Cover
0 0 0 0 0 0 0 0 28 99 13 26 1 0 0 0 0 0 4 0 0 0 0 0 0 0 0 0 0 0 0 0 0
0 0 7 3 0 0 0 0 0 0 0 31 0 0 0 0 0 72 0 0 0 0 0 0 0 0 0 0 0 0 0 0 0
0 40 100 6 0 3 0 0 0 16 0 1 0 0 0 0 0 0 0 0 0 0 0 0 0 0 7 0 0 0 0 0 0
0 44 75 2 0 0 0 0 0 0 0 0 0 0 0 0 0 0 0 0 1 0 1 0 0 42 100 5 4 1 0 4 0
0 0 0 0 0 0 0 0 0 0 0 0 0 0 0 0 2 5 44 80 22 5 5 0 1 90 100 100 56 3 4 18 5
0 0 0 0 0 0 0 0 0 0 0 0 0 0 0 0 5 5 9 18 22 27 30 5 11 100 100 100 100 85 31 81 14
0 0 0 0 0 0 0 0 0 0 0 0 0 0 0 0 3 2 5 3 5 97 100 38 17 100 100 100 100 100 100 100 100
0 0 0 0 1 0 0 0 0 0 3 5 5 5 11 40 27 93 100 5 6 94 15 8 90 100 100 100 100 100 100 100 98
0 0 0 0 0 0 0 0 0 0 0 0 0 0 4 15 62 100 100 100 30 22 50 11 14 80 100 100 100 100 100 100 100
0 0 0 0 0 0 0 5 18 5 5 5 18 29 11 100 95 30 47 100 99 95 97 84 97 100 100 100 100 100 100 100 100
0 0 0 0 0 0 0 5 33 91 100 76 22 83 100 100 100 12 91 83 58 97 100 100 100 100 100 100 100 100 100 100 100
0 0 0 0 0 0 2 5 98 100 19 3 2 8 50 6 11 5 5 15 100 100 100 100 100 100 100 100 100 100 100 100 100
0 0 0 1 6 5 5 9 29 5 5 5 5 5 10 20 5 5 6 8 18 83 99 100 100 100 100 100 100 100 100 100 100
2 5 4 5 10 5 5 5 5 5 5 5 44 44 54 7 44 21 9 5 9 54 14 100 100 100 100 100 100 100 100 100 100
4 4 3 1 2 5 5 5 5 22 5 5 5 4 7 86 8 5 10 5 40 86 100 100 100 100 100 100 100 100 100 100 100
3 0 0 0 0 3 37 99 86 94 64 5 5 4 8 13 5 5 15 53 100 100 100 100 100 100 100 100 100 100 100 100 100
0 4 4 3 3 5 0 0 0 44 75 10 64 71 30 5 5 6 90 97 68 95 56 45 87 90 100 100 100 100 100 100 100
5 1 0 5 5 5 0 5 10 4 7 60 99 100 20 2 6 91 22 75 100 92 72 51 51 78 100 100 100 100 100 100 100
0 3 5 12 52 25 19 39 52 67 38 72 100 98 38 54 59 100 50 100 100 100 99 72 72 5 21 99 100 100 100 100 100
6 5 10 52 85 81 69 98 100 100 97 2 68 100 94 75 100 84 100 83 97 39 81 100 97 82 5 96 100 100 100 100 100

GFSFLT1_prec_cloud_009.txt.gz
Cloud_Cover
0 0 0 0 0 0 0 0 0 0 98 45 0 0 0 0 0 50 0 0 0 0 0 0 0 0 0 0 3 3 0 0 0
3 0 0 0 0 0 0 0 0 51 0 48 0 0 0 0 0 0 0 0 2 4 3 5 5 3 0 0 5 94 5 5 2
0 0 0 0 0 0 0 0 0 9 0 8 0 0 0 0 0 0 0 0 2 1 2 4 3 5 5 0 1 5 5 5 5
0 0 0 0 0 0 0 0 0 0 0 0 0 0 0 0 0 0 0 0 0 36 48 13 3 42 67 4 43 5 93 85 10
0 0 0 0 0 0 0 0 0 0 0 0 0 0 0 0 0 0 0 1 6 44 100 100 5 5 5 4 5 7 100 100 100
0 0 0 0 0 0 0 0 0 0 0 0 0 0 0 0 0 0 0 3 30 100 100 36 44 9 8 88 32 16 91 100 100
5 0 0 0 0 0 0 0 0 0 0 0 2 3 3 2 0 1 5 54 100 100 18 5 8 42 26 94 88 98 100 100 100
0 0 0 0 0 0 0 0 0 0 0 5 5 4 1 2 1 5 78 100 61 32 27 6 5 5 5 100 100 100 100 100 100
0 0 0 0 0 0 0 0 0 0 0 0 0 12 19 5 25 74 6 5 5 50 5 5 5 5 5 6 56 91 67 98 100
0 0 0 0 0 0 0 0 0 0 0 5 5 69 4 25 6 13 5 5 8 13 5 5 11 5 5 39 99 100 100 99 86
0 0 0 0 0 0 0 0 0 2 1 5 3 24 25 11 20 5 5 9 6 21 8 5 5 20 7 98 72 98 100 93 100
0 0 0 0 0 0 0 0 0 0 1 3 5 3 11 62 72 45 40 5 6 5 5 5 5 78 98 50 44 99 97 100 99
0 0 0 0 0 0 0 0 0 0 0 0 5 43 90 86 27 18 5 5 5 5 5 52 34 99 6 6 100 91 97 100 98
0 5 4 2 4 0 0 0 0 0 0 1 2 0 3 1 5 5 5 5 4 5 5 12 72 11 52 29 100 69 57 98 100
6 5 5 1 0 0 0 0 0 5 5 1 1 0 5 2 3 5 5 5 5 5 5 11 56 46 100 50 5 5 87 37 10
0 0 0 0 0 5 5 3 5 36 5 5 4 5 5 5 5 5 5 5 0 5 5 22 51 99 100 52 25 5 5 5 6
0 0 0 5 7 35 66 6 14 5 6 8 61 80 23 2 4 0 3 5 5 5 5 28 6 5 5 5 5 60 100 100 72
0 0 5 5 5 5 5 6 10 20 11 29 100 100 45 5 5 3 4 3 2 5 36 46 5 5 5 5 5 99 98 82 75
0 0 0 5 5 5 6 21 72 97 100 100 100 100 99 94 54 5 5 5 5 21 78 95 36 5 5 5 81 81 68 98 100
5 5 5 5 2 14 12 36 100 100 100 100 100 100 100 82 100 100 5 7 31 30 91 100 63 6 5 5 5 99 81 100 100

GFSFLT1_prec_cloud_012.txt.gz
Cloud_Cover
16 0 0 0 0 0 5 0 0 0 0 61 0 0 0 0 0 0 0 0 0 0 0 0 0 0 1 0 0 0 0 0 0
57 4 3 0 0 0 0 0 0 0 0 3 0 0 0 0 0 0 0 0 0 0 0 0 5 5 7 5 1 1 0 0 0
56 5 4 3 2 0 0 0 0 0 0 0 0 0 0 0 0 0 0 0 0 0 0 0 1 5 5 5 5 0 0 0 5
12 0 3 9 8 2 0 0 0 0 0 0 0 0 0 0 0 0 0 0 0 0 0 0 4 5 5 5 0 0 5 58 99
5 5 5 5 8 0 0 0 0 0 0 0 0 0 0 0 0 2 5 5 0 0 0 0 5 5 5 5 5 5 5 0 5
5 5 5 5 0 0 0 0 0 0 0 0 0 0 0 0 0 0 5 4 0 0 5 15 8 5 5 14 4 4 5 0 0
36 12 5 5 2 0 0 0 0 0 0 0 0 0 0 0 0 0 5 4 3 23 7 20 26 8 5 5 5 5 5 4 5
22 5 2 0 0 0 0 0 0 0 0 0 0 0 0 0 0 0 3 5 0 4 5 1 1 5 5 5 5 5 5 6 49
2 0 0 0 0 1 0 0 0 0 0 0 0 0 0 0 0 2 5 5 5 5 4 5 5 4 5 28 72 19 5 42 11
0 0 0 0 5 5 8 6 0 0 0 0 0 0 0 0 4 5 25 5 9 5 5 5 5 5 5 88 69 8 57 5 11
0 0 0 0 0 0 0 0 0 0 0 0 0 0 0 2 4 5 5 5 5 5 31 25 5 56 99 16 10 7 6 6 86
0 0 0 0 0 1 0 0 0 0 5 4 5 1 4 10 46 5 5 10 57 5 5 5 26 100 88 46 5 5 6 5 6
3 4 5 5 4 1 0 0 1 2 4 1 5 5 5 25 13 7 5 30 5 5 5 5 5 38 5 5 5 6 5 93 68
5 10 5 5 4 0 3 2 0 2 4 5 40 5 21 6 3 5 5 5 5 6 57 78 77 4 5 5 5 6 5 5 5
31 39 5 5 5 4 5 5 4 4 5 5 5 5 5 25 76 5 38 5 5 5 45 5 22 64 5 5 5 5 5 5 5
5 5 0 0 0 5 5 1 0 5 3 39 2 16 40 5 5 14 62 61 11 5 5 5 50 62 5 5 5 4 5 5 5
0 0 0 0 4 5 1 0 4 14 28 87 100 100 79 46 5 5 57 22 24 8 5 6 5 80 5 5 6 5 5 5 5
5 5 24 10 5 5 5 5 5 5 69 100 100 100 100 81 95 35 32 22 56 95 5 30 58 86 5 69 10 21 5 5 5
3 5 39 6 5 5 7 38 41 35 66 100 100 100 100 100 100 100 100 69 8 13 5 88 41 100 80 5 5 5 6 5 5
5 5 5 5 6 6 5 100 100 100 64 80 100 100 100 100 100 100 90 52 52 10 12 51 72 100 100 28 17 17 5 59 6

GFSFLT1_prec_cloud_015.txt.gz
Cloud_Cover
22 6 86 13 5 0 0 0 5 0 0 0 0 0 0 0 0 0 0 0 0 0 0 0 0 0 0 0 0 0 0 0 0
10 5 31 96 13 5 4 0 0 0 0 0 3 0 0 0 0 0 0 0 0 0 0 0 0 0 0 0 0 0 0 0 0
31 5 23 5 18 15 1 0 0 0 0 0 1 0 0 0 0 0 0 0 0 0 0 0 0 0 0 0 0 0 0 0 0
4 4 8 6 9 10 0 0 0 0 0 0 0 0 0 0 0 0 0 0 0 0 0 0 0 0 0 0 0 0 0 0 0
8 5 5 5 0 2 6 0 0 0 0 0 6 0 0 0 0 0 0 0 0 0 0 0 0 0 1 4 5 5 0 0 0
52 5 5 5 5 4 5 5 5 0 0 0 0 0 0 0 0 0 0 0 0 0 0 0 0 0 5 5 58 5 5 5 5
5 5 5 5 5 5 2 0 0 0 0 0 0 0 0 0 0 0 0 0 0 1 4 0 4 4 5 5 5 6 5 7 64
65 5 5 8 5 9 0 0 0 0 0 0 0 0 0 12 0 0 0 0 0 0 5 5 5 5 4 1 2 5 26 100 15
7 7 5 2 12 8 9 12 0 0 0 0 0 0 0 0 0 0 0 0 0 3 5 5 0 4 5 5 5 5 39 29 5
5 5 1 2 3 17 16 17 4 0 0 0 0 0 0 0 0 0 0 0 4 5 5 5 14 12 5 46 7 5 5 5 5
5 0 0 14 20 6 2 1 4 5 5 0 0 0 0 0 0 0 5 2 5 5 5 37 59 6 9 91 38 46 5 5 5
4 0 0 0 4 13 8 5 5 5 5 3 0 3 5 5 5 5 33 5 5 6 5 86 66 92 98 99 27 7 5 6 36
0 0 5 61 97 100 22 5 3 0 0 0 3 5 5 5 14 67 6 5 42 28 7 98 59 52 99 64 47 5 5 5 100
0 0 3 5 21 25 5 5 0 0 0 5 5 5 5 5 5 5 5 5 5 17 19 83 58 100 100 34 7 5 5 6 94
0 0 0 0 5 5 5 37 50 36 14 36 20 34 12 5 6 5 5 5 5 7 81 100 98 100 100 99 75 13 5 5 15
0 20 42 34 43 32 54 58 51 38 42 100 100 100 79 8 5 5 5 5 5 8 80 67 86 100 100 94 73 43 5 5 76
0 0 6 5 7 21 31 64 71 95 58 96 100 100 100 69 10 5 5 5 8 36 5 33 67 100 100 100 70 5 5 5 5
0 0 0 0 8 5 15 19 48 63 19 25 97 100 100 100 98 93 83 46 16 12 98 100 100 100 100 100 90 14 37 14 7
0 1 5 8 6 5 5 28 73 100 100 79 100 100 100 100 100 100 100 100 100 100 100 100 100 100 92 60 100 100 100 66 61
5 5 5 5 9 62 96 78 24 82 100 100 100 100 100 100 100 100 100 100 100 100 99 100 100 99 100 91 97 100 100 100 91

GFSFLT1_prec_cloud_018.txt.gz
Cloud_Cover
100 22 5 5 0 0 3 21 0 0 14 0 99 0 0 0 0 0 0 0 0 0 0 0 0 0 0 0 0 0 0 0 0
85 100 76 5 5 3 0 0 0 0 0 0 7 14 0 0 0 0 0 0 0 2 0 0 0 0 0 0 0 0 0 0 0
100 98 6 6 1 5 3 0 0 0 0 1 1 52 0 0 0 0 0 0 0 0 0 0 0 0 0 0 0 0 0 0 0
100 20 9 0 54 96 48 20 20 1 0 0 0 23 18 0 0 0 0 0 0 0 0 0 0 0 0 0 0 0 0 0 0
72 100 39 14 3 56 82 9 4 8 0 0 0 0 0 0 0 0 0 0 0 0 0 0 0 0 0 0 0 0 0 0 1
100 52 11 18 5 5 9 7 0 0 0 0 0 0 0 0 3 0 0 0 0 0 0 0 0 0 0 0 2 5 5 5 5
73 37 9 5 9 5 2 3 11 1 0 0 0 0 0 13 9 0 0 0 0 0 0 0 4 3 4 5 5 15 63 8 56
100 62 12 5 5 10 5 4 8 0 0 0 0 4 5 11 18 7 0 0 0 5 5 4 0 72 6 5 5 7 6 45 56
28 13 5 6 5 7 13 22 8 1 0 1 2 5 5 5 2 0 0 0 0 4 0 0 3 38 93 24 5 12 35 41 21
5 50 8 6 3 12 8 15 1 10 1 2 5 3 1 0 0 0 0 1 0 0 4 5 5 5 5 9 6 32 71 70 61
42 72 5 8 8 1 3 3 4 5 6 4 0 2 0 0 0 0 5 0 5 5 0 5 5 5 5 5 5 5 50 62 100
100 99 5 1 1 0 8 13 11 54 9 5 0 0 0 0 0 5 5 2 0 4 5 5 5 5 5 10 70 45 6 50 100
99 91 5 4 0 0 4 14 10 7 11 18 4 8 5 2 0 0 2 5 5 5 5 5 20 5 5 5 19 53 78 75 98
79 44 5 5 4 31 60 91 99 100 100 100 100 99 59 23 7 5 5 5 5 5 5 5 5 5 5 7 60 97 80 100 100
71 7 7 4 78 100 100 98 100 100 100 100 100 100 99 79 2 5 5 5 5 5 5 5 5 5 5 5 33 75 84 100 100
5 24 5 0 0 0 0 10 30 9 98 100 31 25 5 5 6 6 5 4 4 0 5 5 5 5 5 5 5 41 100 100 100
5 5 5 1 4 0 3 21 99 100 100 100 100 100 93 11 16 5 5 4 5 5 5 5 6 5 5 13 95 91 82 100 100
4 5 3 0 0 2 5 9 41 96 66 96 100 100 100 100 76 38 5 7 36 26 16 6 58 6 24 97 96 100 100 100 100
0 0 0 4 5 5 5 18 17 5 13 14 53 94 100 100 100 99 100 99 86 7 29 45 53 75 41 5 21 81 100 50 64
1 5 5 5 6 5 5 16 11 5 5 1 1 2 4 5 65 80 29 40 54 86 40 43 7 91 99 73 100 100 100 100 100

GFSFLT1_prec_cloud_021.txt.gz
Cloud_Cover
2 100 100 77 100 9 5 95 78 0 24 100 100 100 26 0 0 0 0 0 0 0 3 0 0 0 0 0 0 0 0 0 0
43 100 100 100 100 96 5 5 3 4 0 34 2 91 90 14 0 0 0 0 0 0 3 0 0 0 0 0 0 0 0 0 0
100 100 100 100 100 70 6 10 0 1 5 36 83 79 77 6 0 0 0 0 0 0 68 1 0 0 0 0 0 0 0 0 0
98 100 100 100 96 100 100 100 84 3 4 0 2 65 71 58 39 0 0 0 0 0 0 1 0 0 0 0 0 0 0 0 0
81 100 100 100 29 73 83 80 98 3 6 3 0 0 12 16 10 0 0 0 0 0 1 6 61 0 0 0 0 0 0 4 5
100 100 100 100 100 17 5 20 34 85 64 2 0 0 0 0 0 0 0 0 0 0 0 10 9 96 0 0 0 0 1 5 5
100 100 100 100 69 7 13 5 4 0 4 0 0 0 0 0 0 0 0 0 0 0 0 0 0 8 5 5 3 2 5 5 5
100 100 100 100 100 62 5 5 5 5 0 0 0 0 0 0 0 0 0 0 0 0 0 0 5 5 5 6 4 5 5 5 7
100 100 100 85 70 5 5 5 4 0 0 0 0 0 0 4 0 0 0 0 0 0 0 0 0 2 5 2 1 5 5 53 70
100 99 98 37 26 69 12 5 0 0 0 0 0 4 5 5 5 5 0 0 0 0 0 0 0 1 0 3 5 5 5 5 5
100 98 57 38 70 75 21 5 0 0 0 0 4 5 5 5 5 5 13 5 5 5 2 0 0 2 5 5 5 5 5 5 87
93 100 62 5 5 5 5 38 79 65 56 31 31 43 47 84 63 5 5 5 0 0 0 0 4 5 5 5 5 5 5 9 52
11 5 5 5 5 5 5 75 99 73 77 69 78 68 62 76 10 0 0 0 0 3 0 5 5 5 5 5 5 5 5 56 96
0 0 0 0 4 5 5 5 18 4 0 4 4 0 0 0 0 0 0 0 0 5 5 5 5 5 5 5 32 82 52 53 91
0 0 1 2 5 5 7 20 13 40 56 74 86 38 14 2 0 0 0 0 0 0 0 0 0 2 5 18 92 96 85 61 46
5 5 5 5 5 3 0 5 5 1 38 64 23 88 49 5 4 5 5 5 5 5 5 5 5 5 5 5 5 5 5 5 49
45 36 16 5 3 0 0 0 0 0 0 82 38 23 5 5 21 46 67 20 40 96 40 5 5 5 5 5 5 5 5 5 22
0 0 0 0 0 0 0 0 0 0 0 2 38 61 5 67 12 35 48 52 18 5 6 38 76 64 38 13 6 11 65 5 5
0 0 0 0 0 0 0 0 0 0 0 5 5 0 0 0 0 0 1 1 2 9 22 55 92 81 15 8 5 11 59 99 48
0 0 0 0 0 0 0 0 0 0 3 5 1 5 5 5 42 53 4 0 0 0 1 0 2 52 43 4 0 4 100 100 100

GFSFLT1_prec_cloud_027.txt.gz
Cloud_Cover
0 0 0 0 0 2 5 1 50 99 100 44 14 11 90 5 17 5 5 5 0 0 0 0 0 0 0 0 0 0 0 0 0
24 90 0 0 0 7 2 4 100 100 100 100 100 75 38 5 6 32 55 32 5 5 0 0 2 0 0 0 0 0 0 0 0
0 100 3 0 0 31 22 98 100 100 100 100 86 100 6 9 6 18 7 5 5 4 0 0 22 35 9 0 0 0 0 0 0
0 5 5 5 2 5 17 100 100 100 100 72 100 46 15 42 82 6 5 5 5 5 4 0 4 15 23 2 0 0 0 0 0
0 5 39 5 1 61 100 100 100 100 100 99 99 100 100 88 37 5 5 5 5 5 5 5 5 46 0 48 7 0 0 0 0
0 5 75 10 6 100 100 100 82 82 96 100 100 100 7 5 2 5 5 5 5 5 0 0 0 0 0 0 33 31 8 0 0
0 17 90 89 5 27 100 100 100 100 100 100 100 97 79 5 5 5 5 5 2 0 0 0 0 0 0 0 0 1 14 8 0
0 2 18 26 95 100 100 100 100 100 100 100 100 100 11 5 5 5 5 5 0 0 0 1 4 5 5 4 2 1 0 0 0
6 5 5 68 100 96 100 100 100 100 100 100 100 17 5 0 5 5 0 2 0 0 0 0 2 0 0 0 0 0 0 0 0
5 64 94 42 35 5 74 100 100 99 100 100 28 33 26 16 33 8 5 5 1 0 0 0 0 0 0 0 0 0 0 0 0
5 27 48 99 96 66 98 92 97 100 100 91 68 46 46 74 70 73 68 67 28 5 4 0 0 12 19 9 0 0 0 0 0
65 59 32 99 100 97 42 79 100 100 100 100 99 14 5 8 38 94 70 78 99 94 29 1 0 1 63 100 100 85 2 0 0
5 43 98 100 60 100 100 100 85 36 12 11 0 0 0 0 5 5 50 99 98 42 78 99 37 0 0 42 88 54 83 64 50
22 82 70 14 27 21 29 5 1 0 0 0 0 1 11 6 5 3 2 1 6 3 6 0 9 3 1 0 3 6 22 1 4
1 4 5 5 5 4 0 1 0 0 4 57 31 10 5 1 0 0 0 26 100 45 8 8 8 15 78 88 16 0 4 5 5
0 0 0 0 0 0 1 18 67 48 8 5 4 0 0 0 0 0 0 0 0 0 0 4 36 100 100 49 29 5 18 35 24
5 5 5 7 22 50 49 56 71 59 6 0 0 0 0 0 0 0 0 5 5 5 5 4 4 0 0 12 4 0 0 0 0
2 4 5 5 5 18 6 5 5 3 0 0 0 0 0 2 5 30 43 59 15 5 5 5 3 2 4 5 3 32 84 41 89
3 1 0 0 0 4 3 0 0 0 0 0 0 0 0 0 0 4 18 6 46 68 39 30 44 18 5 3 0 0 5 87 100
5 37 2 0 0 0 4 5 0 0 0 0 0 0 5 5 1 0 0 0 0 0 4 5 5 0 0 0 1 4 0 0 17

GFSFLT1_prec_cloud_030.txt.gz
Cloud_Cover
2 0 0 0 0 0 0 0 0 0 0 2 7 90 100 40 77 16 3 5 4 1 5 0 0 0 0 0 0 0 0 5 2
19 91 0 0 0 0 0 0 0 2 5 5 5 100 61 100 100 100 36 5 5 4 2 5 5 5 4 0 0 0 5 0 1
0 0 0 0 0 3 4 0 5 10 2 54 100 100 100 100 97 91 42 3 7 5 2 5 5 5 25 20 5 5 5 5 4
0 0 0 1 3 5 5 4 5 8 63 92 100 100 100 100 100 100 64 62 50 8 1 5 5 5 5 16 17 5 5 5 0
0 0 0 0 3 30 5 5 5 5 100 100 100 100 100 100 100 100 100 100 7 1 2 5 5 5 5 5 5 25 5 0 0
0 0 0 0 3 32 14 5 13 88 100 100 100 100 100 100 100 100 100 4 0 0 5 5 5 0 0 0 0 2 60 11 6
0 0 0 0 0 5 99 56 6 100 100 100 100 100 100 100 100 100 100 98 5 1 5 5 5 0 0 0 0 0 0 0 1
0 0 0 1 0 3 99 58 5 99 100 100 100 100 100 100 100 100 100 11 4 0 5 5 5 3 0 0 0 0 4 3 0
5 5 14 4 5 5 88 100 94 83 100 100 100 100 100 100 100 100 5 3 0 0 5 3 5 5 11 3 0 0 0 0 0
5 5 18 5 28 18 21 8 99 100 100 63 100 100 100 100 100 100 100 100 98 79 78 7 25 9 96 100 89 8 1 0 0
5 5 16 37 40 89 86 46 45 97 100 100 100 100 100 100 39 47 21 27 37 78 56 8 35 94 100 86 57 100 98 46 1
4 5 7 84 100 79 88 100 100 100 100 40 17 48 51 71 5 5 2 5 0 24 7 26 56 16 12 54 96 99 20 94 99
4 51 100 100 97 98 81 7 68 100 98 22 3 13 4 2 2 0 0 0 4 84 56 20 37 18 0 1 1 1 2 0 0
63 88 23 0 0 0 19 70 44 14 30 39 74 40 2 0 0 0 3 26 5 9 4 99 60 0 2 2 22 43 28 28 8
0 0 0 0 0 0 0 0 0 0 1 1 0 0 1 4 19 30 63 5 1 0 14 37 24 2 5 5 79 94 28 5 5
5 5 4 0 2 4 1 5 5 5 0 5 53 87 68 33 31 7 18 2 0 0 0 0 0 0 0 1 3 2 0 0 0
15 4 1 0 0 0 3 5 5 5 5 4 5 5 59 11 5 4 2 1 2 5 5 5 5 5 5 4 3 0 0 0 0
5 0 0 2 0 1 5 4 3 4 1 0 0 1 2 0 5 2 4 4 5 9 5 5 5 5 5 0 0 0 0 0 0
0 4 0 0 2 4 5 5 5 5 25 7 5 2 0 0 1 5 12 12 69 95 63 23 18 5 5 5 1 0 0 0 0
5 5 2 0 0 1 0 3 2 2 0 0 0 5 5 2 0 0 0 0 2 5 20 99 71 5 0 0 0 0 0 0 0

GFSFLT1_prec_cloud_033.txt.gz
Cloud_Cover
0 0 0 0 0 0 0 0 0 0 0 0 0 0 5 5 5 5 5 12 100 75 98 10 3 0 0 0 0 0 0 0 0
0 0 0 0 0 0 0 0 0 0 0 0 0 0 0 0 48 14 22 100 100 100 86 11 2 5 3 0 0 0 0 2 4
0 0 0 0 0 0 0 10 5 23 11 12 3 0 5 11 21 74 100 90 100 100 100 71 5 5 64 73 84 7 3 4 5
0 0 0 0 0 0 0 5 0 5 7 29 5 0 4 59 100 100 99 100 100 100 100 100 97 45 5 36 12 29 15 6 5
0 0 0 0 0 0 0 2 6 5 11 6 5 52 100 100 88 100 100 100 100 100 100 96 31 5 0 0 0 5 22 29 8
0 0 0 0 0 0 0 2 5 67 98 61 12 5 16 100 68 100 100 100 98 100 100 75 93 5 3 1 5 0 2 0 86
0 0 0 0 0 0 0 0 0 6 96 100 18 13 100 100 100 100 100 100 100 100 79 76 61 34 5 1 5 5 0 2 1
0 0 0 0 4 4 0 2 0 0 7 70 88 64 100 100 100 100 100 100 100 100 100 83 7 6 5 1 78 94 11 4 0
5 5 5 5 5 6 5 1 97 95 6 17 11 85 100 100 100 100 100 100 100 100 100 100 61 27 5 79 87 89 18 19 8
5 84 32 18 37 98 14 44 44 44 53 100 100 100 100 100 100 100 100 100 100 100 100 5 5 47 29 5 73 43 56 80 99
8 95 100 100 99 100 100 100 95 100 83 6 9 57 100 100 100 100 100 94 100 16 20 33 35 4 0 11 2 58 13 26 34
58 12 11 76 100 100 94 100 100 10 5 50 100 81 21 5 23 91 54 27 12 9 5 5 4 32 97 27 61 5 21 72 46
21 0 94 100 88 11 7 2 4 0 5 5 5 9 54 73 73 6 5 1 5 2 0 5 4 3 87 62 12 5 4 0 2
5 30 35 0 0 0 0 0 0 0 0 0 4 5 5 5 5 7 3 1 0 0 0 2 7 27 5 21 67 0 0 5 28
6 2 4 2 2 4 5 3 0 0 0 0 0 0 0 0 0 0 1 4 5 4 5 5 5 5 5 5 0 0 0 0 0
90 87 79 68 5 2 4 3 0 0 0 0 0 0 0 3 5 5 5 5 5 5 5 5 5 2 0 0 0 0 0 4 5
43 5 15 6 5 1 0 0 0 0 0 0 0 1 4 0 0 0 0 0 0 1 1 1 2 2 5 5 5 5 5 5 38
28 31 5 2 0 0 0 0 0 0 0 0 0 4 5 16 55 37 24 28 23 16 6 14 6 5 5 4 1 0 0 0 0
0 0 0 0 0 0 0 0 0 0 0 0 0 0 0 0 5 22 81 76 45 38 97 96 47 16 5 5 5 4 4 2 2
0 0 0 0 0 0 0 0 0 0 0 0 0 0 0 0 0 0 0 0 5 11 45 93 100 96 23 42 26 5 4 0 5

GFSFLT1_prec_cloud_036.txt.gz
Cloud_Cover
0 0 0 0 0 0 0 0 0 0 0 0 0 0 0 0 0 0 5 5 5 11 4 5 11 28 65 18 0 0 0 0 0
0 0 0 0 0 0 0 0 0 5 3 0 0 3 2 1 0 0 0 5 5 5 5 10 100 100 100 44 5 1 5 3 0
0 0 0 0 0 0 0 3 2 48 69 70 10 3 21 5 5 3 0 2 5 26 96 75 100 100 100 100 100 97 93 10 0
0 0 0 0 0 0 0 0 5 5 5 18 6 13 21 60 10 5 3 5 32 80 92 98 100 100 100 100 100 90 13 68 22
0 0 0 0 0 0 0 0 0 0 5 55 33 96 81 32 25 5 0 17 100 95 58 100 100 100 100 100 100 100 7 4 98
0 0 0 0 0 0 0 0 0 0 2 9 17 13 100 100 5 5 57 99 99 100 100 100 100 100 100 100 100 100 5 32 72
0 0 0 0 0 3 0 0 0 0 0 0 2 1 100 100 99 20 48 68 100 100 100 100 100 100 100 100 96 95 99 98 100
4 5 4 0 0 0 0 5 71 6 5 2 4 29 11 87 100 100 96 100 100 100 100 100 100 100 100 100 100 100 100 99 65
5 4 7 65 100 95 67 40 99 100 100 92 100 90 71 23 41 29 85 100 100 100 100 100 100 100 100 100 100 100 75 6 8
5 74 88 100 100 40 32 78 100 100 100 94 93 78 31 13 80 99 95 26 86 100 99 99 66 97 100 94 77 34 50 52 85
0 2 11 63 82 87 100 100 100 100 100 98 69 54 5 5 5 10 78 5 32 80 90 83 83 23 50 52 84 5 3 11 5
25 4 5 5 61 95 100 76 67 89 99 94 100 19 9 5 5 5 5 5 5 50 7 35 50 23 8 5 28 90 59 98 19
17 5 28 5 25 8 5 0 0 0 0 0 3 0 2 1 0 0 0 4 4 5 5 5 5 17 9 10 2 5 39 87 0
38 26 34 20 46 16 5 0 0 0 0 0 0 0 0 0 0 0 0 0 0 0 0 0 0 4 4 4 2 0 0 1 2
8 31 43 96 56 21 33 9 9 13 6 5 0 0 0 0 0 0 0 0 0 0 0 0 3 4 5 5 5 5 5 5 5
8 35 5 5 19 5 55 58 11 12 3 0 0 0 0 0 0 0 0 0 0 0 0 1 0 0 0 0 0 0 0 0 0
0 1 5 5 5 0 0 0 0 0 0 0 0 0 0 0 0 3 5 0 2 5 5 5 5 5 5 5 5 5 5 5 65
0 0 0 0 0 0 0 0 0 0 0 0 0 0 0 0 5 5 5 5 5 5 5 5 5 3 1 0 0 0 1 5 3
0 0 0 0 0 0 0 0 0 0 0 0 0 0 0 0 0 3 5 6 8 2 5 5 5 5 5 3 0 0 0 2 3
0 0 0 0 0 0 0 0 0 0 0 0 0 0 0 0 0 0 0 0 0 0 0 5 5 5 5 5 5 4 0 1 5

GFSFLT1_prec_cloud_039.txt.gz
Cloud_Cover
5 1 0 0 0 0 0 0 0 0 0 0 0 0 9 0 0 0 0 1 0 0 0 5 4 6 31 5 3 5 12 98 18
24 2 0 0 0 0 0 0 0 0 0 0 1 4 1 0 0 0 5 5 5 5 4 4 22 97 86 100 62 58 100 17 6
6 5 3 5 0 0 0 0 0 0 9 28 99 5 5 0 5 29 54 37 56 42 5 5 9 38 8 90 96 100 100 100 100
3 42 1 3 4 0 0 0 0 0 0 5 47 1 5 3 64 5 89 100 100 10 32 5 11 83 61 90 100 100 100 100 100
5 8 5 37 0 0 0 0 0 0 0 0 0 1 34 5 5 73 89 40 71 100 90 9 37 100 100 100 100 100 100 100 100
51 5 5 0 0 0 0 0 0 0 0 0 0 0 3 65 5 10 70 100 100 77 53 100 100 100 100 100 100 100 100 100 100
2 2 3 0 0 0 0 0 1 0 5 6 5 8 3 3 6 24 57 100 100 100 88 21 94 100 100 100 100 100 100 100 100
0 4 5 4 5 4 0 3 5 5 5 32 100 92 32 34 17 85 64 10 63 100 93 97 100 100 100 100 100 100 100 100 100
0 5 5 1 0 0 0 5 5 9 13 19 72 70 100 100 100 100 86 54 7 5 18 100 100 100 100 100 100 100 100 100 100
5 5 4 0 0 5 60 79 98 100 100 99 18 5 16 27 89 81 92 100 99 99 100 73 7 66 79 100 100 100 100 100 100
32 5 5 3 1 99 97 100 88 78 5 8 5 4 5 5 5 5 5 30 98 78 58 16 5 5 5 5 100 100 100 100 98
100 57 49 36 14 8 3 9 2 5 6 6 4 2 0 0 0 0 0 4 4 4 5 19 28 5 5 5 5 7 5 6 86
100 5 34 92 2 1 0 0 0 5 5 6 5 5 5 0 0 0 0 0 0 0 0 0 0 0 0 0 1 5 5 2 0
100 48 58 21 4 5 5 5 4 5 5 5 5 1 0 0 0 0 0 0 0 0 0 0 0 1 0 0 0 0 0 0 0
100 9 5 1 0 0 0 2 38 28 4 0 0 0 0 0 0 0 0 0 0 0 0 0 0 0 0 0 4 5 5 5 5
9 5 4 0 0 0 0 0 0 0 0 0 0 0 0 0 0 0 0 0 0 0 0 0 0 3 5 5 5 5 5 1 0
5 6 0 0 0 0 0 0 0 0 0 0 0 0 0 0 0 0 4 0 0 0 0 0 0 0 0 0 4 5 5 5 5
10 2 0 0 0 0 0 0 0 0 0 0 0 0 0 0 1 0 4 0 0 0 0 2 0 0 0 0 0 0 0 0 2
5 0 0 0 0 0 0 0 0 0 0 0 0 0 0 0 0 0 0 5 1 0 2 5 5 5 5 4 2 0 0 0 5
0 0 0 0 0 0 0 0 0 0 0 0 0 0 0 0 0 0 0 0 5 5 6 16 82 98 58 17 5 5 0 1 5

GFSFLT1_prec_cloud_042.txt.gz
Cloud_Cover
6 86 5 5 31 5 4 0 0 0 0 0 0 0 0 0 0 0 0 0 0 0 0 5 5 45 2 3 1 19 5 95 28
51 51 5 76 5 5 2 0 3 5 1 0 2 0 0 0 0 0 2 0 3 5 5 7 95 50 5 20 93 56 79 100 62
100 30 28 73 2 0 2 10 5 8 3 6 68 0 0 0 0 53 26 3 63 100 99 90 100 86 100 88 28 23 80 18 15
100 84 88 93 91 4 90 27 0 0 0 0 0 0 0 0 20 12 14 5 100 100 88 100 100 100 42 15 67 38 89 91 77
100 100 100 8 5 14 14 0 0 0 0 0 0 0 0 0 1 1 12 0 3 28 100 97 33 85 90 100 26 77 100 100 100
42 98 96 57 5 5 5 3 0 0 0 0 0 0 4 0 0 0 1 2 4 2 21 73 100 87 84 53 51 100 100 100 100
20 57 20 5 5 0 5 3 0 0 0 0 0 0 0 1 5 5 5 5 5 5 5 46 100 90 100 94 100 100 100 100 100
43 28 16 5 5 3 5 0 0 0 0 0 3 2 2 3 0 5 5 5 10 53 100 60 41 16 100 86 61 100 100 100 100
7 5 5 0 3 5 2 4 5 0 25 100 30 5 5 4 5 5 5 28 57 5 5 5 14 23 80 92 100 100 100 100 100
5 5 5 5 5 6 10 5 6 65 82 29 5 5 5 1 5 5 4 5 0 0 4 5 5 5 25 16 66 68 82 100 100
14 47 39 14 47 100 97 25 5 0 0 0 0 0 5 5 5 5 0 0 0 0 0 0 0 0 0 1 0 1 5 5 24
100 96 84 100 100 74 75 5 4 0 0 0 0 0 0 0 0 4 0 0 0 0 0 0 0 0 0 0 0 0 0 0 0
100 100 80 98 77 46 43 5 0 2 0 0 0 0 0 0 0 0 0 0 0 0 0 0 0 0 0 0 0 0 0 0 0
100 100 100 75 42 46 63 5 3 2 0 0 0 0 0 0 0 0 0 0 0 0 0 0 0 0 0 0 0 0 0 0 0
100 100 100 99 58 40 27 5 5 0 0 0 0 0 0 0 0 0 0 0 0 0 0 0 0 0 1 1 2 2 4 0 1
100 100 100 37 100 82 7 5 5 0 0 0 0 0 0 0 0 0 0 0 0 0 0 0 0 0 0 0 0 0 0 0 3
100 100 100 100 90 5 5 5 1 0 0 0 0 0 0 0 0 0 0 0 0 0 0 0 0 0 0 0 0 0 0 0 3
100 100 100 87 50 36 23 5 0 0 0 0 0 0 0 3 0 0 0 0 0 0 0 0 0 0 0 0 0 0 0 0 3
100 99 63 21 33 45 5 0 0 0 0 0 0 0 0 0 0 0 4 0 0 0 2 2 4 2 0 0 0 0 0 1 5
78 58 57 50 50 8 1 0 0 0 0 0 0 0 0 0 0 0 0 0 5 5 5 5 5 5 5 5 4 0 5 5 5

GFSFLT1_prec_cloud_045.txt.gz
Cloud_Cover
2 5 7 5 5 2 0 2 0 0 0 0 0 5 0 0 0 0 0 0 0 0 4 0 4 2 5 5 2 5 5 5 5
9 84 30 72 88 7 4 1 3 0 7 26 15 5 0 0 0 0 0 0 0 3 3 0 5 43 8 91 96 89 28 73 67
95 98 89 100 100 86 43 9 5 6 5 4 1 0 0 0 0 0 0 0 1 66 21 5 26 44 94 100 100 100 37 43 36
63 100 99 88 57 78 97 86 73 63 5 3 4 0 0 0 0 0 0 0 0 6 9 3 87 100 100 99 28 98 100 74 49
21 86 20 70 96 60 42 23 5 5 5 5 0 0 0 0 0 0 0 0 2 4 0 14 48 38 7 79 100 84 96 11 100
58 20 22 6 5 7 5 5 5 5 5 2 3 0 0 0 0 0 0 0 0 5 5 5 11 1 3 97 79 100 93 84 85
87 92 7 8 5 5 5 5 5 5 5 5 0 0 2 4 0 0 0 0 0 0 0 5 1 5 18 5 5 100 100 94 37
5 27 22 11 5 5 5 16 5 5 5 5 4 2 0 1 4 0 0 0 0 0 2 0 4 5 2 6 6 5 5 92 56
58 22 20 20 5 17 6 6 5 14 5 5 5 5 5 0 3 5 5 1 3 5 5 5 0 0 0 0 0 0 1 5 25
44 60 37 9 8 12 5 5 6 40 5 5 5 5 5 0 0 0 0 0 0 0 0 0 0 0 0 0 0 0 0 0 4
88 62 89 88 82 100 96 58 89 22 5 8 5 5 5 0 0 0 0 0 0 0 0 0 0 0 0 0 0 0 0 0 0
100 98 100 100 78 93 56 52 100 73 47 24 5 5 5 0 0 0 0 0 0 0 0 0 0 0 0 0 0 0 0 0 0
100 100 100 100 99 64 52 100 100 96 50 58 11 16 5 0 0 0 0 0 0 0 0 0 0 0 0 0 0 0 0 0 0
99 100 100 100 98 100 100 100 100 96 95 61 59 38 5 4 0 0 0 0 0 0 0 0 0 0 0 0 0 0 0 0 0
100 100 100 100 100 100 100 100 100 100 72 40 37 5 4 3 0 0 0 0 0 0 0 0 0 0 0 0 0 0 0 0 0
100 100 100 100 100 100 100 100 100 97 82 6 5 5 5 2 0 0 0 0 0 0 0 0 0 0 0 0 0 0 0 0 0
100 100 100 100 100 100 100 100 100 92 36 62 5 5 5 0 0 0 0 0 0 0 0 0 0 0 0 0 0 0 0 0 3
100 100 100 100 100 100 100 100 69 74 39 6 5 11 1 0 0 0 0 0 0 0 0 0 0 0 0 0 0 0 0 0 4
100 100 100 100 100 100 93 76 11 6 28 21 5 2 0 0 0 0 0 0 0 0 0 4 4 3 1 0 0 0 0 3 5
100 100 100 100 94 29 57 5 5 5 6 5 4 0 0 0 0 0 0 2 5 5 5 6 10 6 5 5 3 0 5 5 5

GFSFLT1_prec_cloud_048.txt.gz
Cloud_Cover
0 3 5 5 4 5 9 8 2 5 5 1 5 0 1 2 9 0 0 0 0 0 0 0 0 2 14 2 5 0 3 1 5
1 3 5 5 5 29 60 100 97 100 68 85 16 46 34 18 26 16 5 7 0 29 73 0 0 4 8 5 5 1 58 49 38
0 0 0 0 5 57 100 100 100 63 48 12 39 5 5 9 24 23 16 0 0 6 98 5 4 4 5 2 8 17 5 5 100
5 0 5 5 26 51 100 100 11 36 58 71 23 5 5 11 22 3 5 0 0 4 15 7 3 1 4 0 12 100 96 100 57
48 7 4 8 68 100 100 18 5 4 6 5 5 6 23 28 10 19 13 0 0 5 0 2 4 6 30 4 41 79 19 99 99
69 98 100 100 100 100 97 100 25 5 5 5 5 42 28 10 5 16 0 0 0 0 0 0 0 0 0 0 12 35 17 9 5
7 30 82 94 41 9 79 51 5 5 26 16 6 56 18 5 5 5 4 0 0 0 0 0 0 0 15 21 0 0 3 3 5
40 65 8 29 7 7 15 81 89 30 48 26 10 20 45 5 5 5 5 3 0 0 0 0 0 0 0 0 2 0 1 0 0
93 75 72 46 100 74 75 46 20 12 39 38 77 72 62 20 5 5 5 5 5 1 0 0 0 0 0 0 0 4 5 0 0
65 95 96 100 100 100 100 98 33 60 51 87 100 98 52 69 26 5 5 5 5 5 0 0 0 0 0 0 0 0 0 0 0
53 61 90 100 99 100 100 100 99 60 53 99 100 98 25 80 68 6 8 14 5 5 0 0 0 0 0 0 0 0 0 0 0
9 46 98 67 100 100 100 100 99 100 98 100 100 100 100 100 68 31 7 39 5 9 5 0 0 0 0 0 0 0 0 0 0
100 95 92 100 100 100 100 100 100 100 88 100 100 100 100 100 91 60 8 62 59 5 5 1 0 0 0 0 0 0 0 0 0
88 95 35 24 25 100 100 100 100 100 100 100 100 100 100 100 100 39 61 90 29 5 5 0 0 0 0 0 0 0 0 0 0
20 75 92 46 50 72 82 96 100 100 100 100 100 100 100 100 91 90 63 31 18 5 5 0 0 0 0 0 0 0 0 0 0
100 100 100 35 86 72 99 100 100 100 100 100 100 100 100 100 82 68 84 6 5 5 1 0 0 0 0 0 0 0 0 0 0
100 100 96 79 83 94 100 100 100 100 100 100 100 100 91 71 66 33 7 5 5 4 0 0 0 0 0 0 0 0 0 0 1
100 100 98 72 100 100 100 100 100 100 100 100 100 96 54 23 34 5 5 5 3 0 0 0 0 0 0 0 0 0 0 0 5
100 100 100 100 97 100 94 77 82 84 100 95 93 87 78 72 86 8 5 3 0 0 0 0 0 0 0 0 0 0 0 2 5
100 100 100 100 100 99 100 93 91 82 70 82 86 76 37 36 5 70 5 1 0 0 0 4 1 0 0 0 0 0 1 5 5

GFSFLT1_prec_cloud_051.txt.gz
Cloud_Cover
0 0 0 0 0 0 0 0 5 5 2 17 100 33 5 5 50 30 6 7 0 5 2 0 0 0 0 0 0 0 0 2 0
0 0 0 3 1 0 0 0 0 4 3 5 100 100 62 5 43 42 26 21 5 5 100 96 4 0 0 5 7 2 1 7 7
4 2 3 2 5 3 3 0 4 4 4 93 100 90 6 5 32 25 34 5 5 3 90 99 0 5 7 3 0 4 4 2 0
5 5 5 5 5 5 5 5 18 53 99 100 100 11 5 5 96 17 95 10 5 5 14 11 3 2 10 20 52 0 0 1 7
5 5 36 96 100 100 100 62 64 99 99 100 100 8 5 49 100 100 44 5 5 20 7 5 6 0 0 0 6 1 0 0 4
19 14 9 5 5 5 11 60 95 84 71 5 5 77 26 26 20 55 5 24 35 5 5 5 5 10 22 3 0 0 3 8 1
100 100 100 100 85 98 19 77 78 6 93 24 56 6 68 49 15 70 76 62 96 9 8 26 5 5 4 1 0 0 1 1 0
100 100 100 100 100 100 100 100 64 40 19 5 5 5 67 44 55 43 94 100 98 47 25 71 8 5 5 5 0 0 0 0 0
100 100 100 100 100 100 100 100 94 98 87 24 16 8 28 81 39 100 100 100 98 64 34 72 20 5 5 5 2 0 0 0 0
99 98 100 100 100 100 99 100 100 97 75 73 52 29 30 99 66 100 100 96 100 100 100 55 6 5 5 6 5 0 0 0 0
100 100 95 32 46 52 61 47 100 100 100 82 98 68 100 100 100 100 100 100 100 100 100 100 98 14 6 98 36 3 4 0 0
100 100 100 100 95 49 38 52 94 67 99 88 96 90 100 100 100 100 100 100 100 100 100 100 100 58 74 98 16 5 5 3 0
38 100 100 100 100 100 36 6 6 30 37 5 25 55 97 100 100 100 100 100 100 100 100 100 97 84 66 45 21 5 5 3 0
5 56 94 55 77 58 20 5 5 5 2 5 16 92 100 100 100 100 100 100 100 100 100 91 100 77 31 30 5 5 5 3 0
4 72 90 88 87 16 5 15 33 5 5 5 8 75 100 100 100 100 100 100 100 100 100 86 76 20 5 30 17 5 5 0 0
5 9 75 100 100 86 59 56 98 98 80 64 53 99 100 100 100 99 100 100 100 80 69 62 29 18 14 5 5 3 0 0 0
92 100 100 100 100 100 93 81 57 88 98 86 85 85 99 88 58 56 68 100 67 72 43 20 5 5 5 5 3 0 0 0 2
100 100 100 100 100 100 100 100 98 96 74 74 79 74 68 63 44 5 32 34 22 7 31 17 5 5 3 0 0 0 0 0 4
99 100 100 100 100 100 100 100 100 100 94 92 44 74 37 5 72 70 5 5 5 5 5 5 1 0 0 0 0 0 0 0 5
100 100 100 100 100 100 100 100 100 100 100 67 89 100 86 10 8 45 6 6 5 5 5 4 0 0 0 0 0 0 0 5 5

GFSFLT1_prec_cloud_054.txt.gz
Cloud_Cover
0 0 0 0 0 0 0 0 0 0 0 0 0 0 0 0 94 100 100 100 25 8 100 22 0 0 3 0 0 3 0 0 0
0 0 0 0 4 5 4 5 5 5 5 5 5 0 1 2 100 68 82 94 88 7 100 100 8 11 4 0 0 1 1 0 0
0 0 0 0 5 25 5 5 5 5 5 5 5 5 10 94 100 73 59 58 9 7 89 67 5 22 23 9 10 3 0 0 6
0 0 0 0 0 0 1 5 27 72 50 63 76 48 5 13 100 72 100 11 5 10 9 6 10 12 16 6 5 5 14 74 2
5 5 5 5 5 5 5 5 5 5 5 5 5 96 20 92 100 98 32 5 7 32 5 17 6 23 26 11 23 17 50 64 50
99 86 88 34 17 17 22 19 23 26 93 98 100 100 71 15 7 5 5 5 27 38 95 20 86 98 54 39 9 22 30 14 1
100 100 100 100 100 100 100 100 100 100 100 100 100 100 100 54 39 7 9 59 78 62 37 97 100 94 22 15 8 13 5 5 5
100 100 100 100 100 100 100 100 100 100 100 100 100 99 63 18 22 10 5 21 93 100 64 100 100 100 92 54 54 65 8 74 5
2 34 97 100 100 100 100 100 100 100 100 100 97 81 97 70 72 96 68 90 100 100 100 100 100 98 100 100 100 93 5 53 52
5 5 5 9 82 98 71 76 100 100 100 98 90 88 43 12 13 99 84 55 100 100 100 100 100 100 100 100 100 100 28 11 51
5 5 5 5 5 7 91 94 97 56 20 25 5 13 29 42 5 22 45 56 100 100 100 100 100 100 100 100 100 100 82 8 14
5 5 6 41 37 5 17 100 100 100 100 81 6 5 5 67 5 5 100 99 100 100 100 100 100 100 100 100 100 100 94 6 59
8 14 5 2 50 92 11 5 29 87 98 98 31 72 38 0 0 1 21 100 100 100 100 100 100 100 100 100 100 100 69 23 62
7 36 5 5 4 33 95 61 5 6 19 5 5 2 5 5 5 6 77 87 93 100 100 100 100 100 100 100 100 100 100 85 70
1 3 0 0 3 5 46 9 92 72 63 5 5 5 5 5 5 16 98 93 35 80 89 100 100 100 100 49 66 76 40 92 71
5 0 0 0 59 41 84 53 93 100 98 32 13 18 88 86 19 100 88 100 49 5 58 67 88 85 52 10 35 5 8 28 5
0 1 1 2 11 100 100 100 93 100 45 63 43 20 90 98 81 86 30 9 15 5 6 5 5 5 5 5 5 5 5 5 5
0 0 9 93 99 100 100 100 100 100 100 96 68 54 45 100 100 100 81 65 65 5 5 5 5 5 5 5 5 5 5 5 5
96 94 97 98 100 100 100 100 100 99 100 100 100 100 20 100 100 100 87 100 80 5 5 0 0 1 1 4 4 4 3 3 4
100 100 100 100 99 100 100 100 100 100 80 61 72 99 100 96 94 99 66 6 15 5 5 1 5 0 0 0 0 0 0 5 5

GFSFLT1_prec_cloud_057.txt.gz
Cloud_Cover
0 0 0 0 0 0 0 0 0 0 0 0 0 0 5 5 100 91 14 4 5 10 100 100 7 5 4 2 0 5 5 1 3
0 0 0 0 0 0 0 0 0 0 3 1 5 15 52 10 91 46 16 14 5 14 99 99 8 6 10 6 5 5 5 5 5
0 0 2 2 0 0 0 0 0 0 0 0 0 5 5 64 95 56 100 70 17 13 11 20 15 8 27 6 20 14 5 5 7
0 0 1 2 5 4 0 1 0 0 1 4 5 5 5 19 100 99 99 100 84 9 23 23 14 17 28 44 35 46 55 100 68
5 5 5 5 5 5 5 5 24 35 8 5 5 50 44 29 65 80 54 100 11 7 6 27 37 38 45 63 93 75 81 90 33
61 14 26 8 12 42 25 62 69 36 77 67 70 84 100 100 71 89 82 50 30 17 29 65 38 5 33 5 5 9 5 5 5
19 32 14 43 100 87 89 99 100 100 100 100 100 100 100 100 93 86 55 50 9 41 19 5 5 13 66 8 22 10 89 91 93
0 0 0 0 6 38 97 100 100 100 100 100 100 100 100 100 86 78 62 24 5 99 16 9 5 5 41 18 59 79 100 100 100
0 0 0 0 0 1 4 5 14 96 100 100 100 97 100 100 100 93 89 41 18 27 5 5 5 5 94 100 74 100 100 100 100
0 0 1 2 1 0 0 0 3 5 5 3 29 61 26 38 42 12 5 5 5 7 5 22 25 90 100 100 100 100 100 100 100
0 0 2 5 5 5 5 5 1 0 3 0 0 6 61 41 7 5 5 5 26 39 5 11 77 98 100 100 100 100 100 100 100
0 0 3 3 5 3 1 4 5 5 4 0 0 0 0 5 5 6 76 90 47 2 5 31 99 96 100 100 100 100 100 100 100
0 0 5 4 5 5 0 0 54 54 22 5 5 0 3 5 2 0 0 0 1 5 5 96 100 100 100 100 100 100 100 100 100
0 0 3 5 5 5 2 0 0 2 82 7 5 13 6 5 4 5 5 5 12 32 73 38 98 100 99 97 100 100 100 100 100
0 0 0 0 0 0 0 0 5 5 63 38 75 30 100 5 5 5 26 8 71 83 94 100 82 22 23 7 79 92 99 100 100
0 0 0 2 0 0 0 0 5 82 74 74 50 46 100 31 5 5 92 62 54 13 6 99 49 5 5 5 5 5 5 10 88
0 0 0 3 0 4 3 26 15 19 99 96 100 100 100 92 87 99 76 53 5 84 83 51 5 5 5 5 5 5 5 5 5
0 5 0 0 0 7 48 66 100 90 100 100 100 74 95 82 93 86 100 68 80 17 50 23 5 5 5 3 4 5 5 0 5
20 92 40 14 68 100 75 96 100 98 100 100 100 100 100 100 83 100 100 100 96 93 98 94 40 7 5 1 0 1 0 0 4
63 100 100 100 100 100 99 76 99 100 100 100 100 100 90 100 100 100 100 100 90 97 69 5 5 0 2 0 0 0 0 0 5

GFSFLT1_prec_cloud_060.txt.gz
Cloud_Cover
0 0 7 19 53 21 0 0 0 0 0 0 0 0 0 0 0 0 0 2 5 40 100 100 7 42 17 26 5 6 5 5 5
0 0 0 0 1 9 0 0 0 0 0 0 0 0 2 4 7 8 5 5 1 38 75 7 11 63 59 73 12 6 5 5 7
0 0 0 0 0 0 0 0 0 1 2 0 0 0 4 13 69 50 100 34 20 44 14 98 94 62 21 37 43 98 67 20 30
0 0 0 0 0 0 0 0 0 1 3 4 5 43 8 5 12 87 31 10 16 13 8 96 84 17 88 100 100 100 97 96 100
0 0 0 0 0 0 0 3 3 5 5 29 56 68 95 82 100 99 60 72 9 48 65 77 19 100 100 39 22 12 30 49 60
0 0 0 0 2 4 30 42 43 56 40 88 89 69 99 100 96 100 100 100 95 39 52 60 25 95 15 5 4 6 5 10 6
0 0 0 0 5 5 4 5 12 7 4 38 100 100 100 99 100 100 93 100 99 99 91 14 60 7 5 4 0 0 5 5 9
0 4 0 0 0 0 0 5 5 4 0 4 54 98 100 100 89 100 100 100 100 100 61 28 9 5 4 3 1 5 5 6 60
5 18 0 1 0 1 0 0 0 0 2 4 1 0 4 12 30 5 12 40 58 23 5 5 5 5 2 5 5 5 5 42 99
5 2 0 0 0 2 5 5 5 5 5 1 2 4 4 2 1 5 5 0 0 5 4 5 5 15 5 5 5 6 5 6 67
5 4 0 0 0 3 5 2 0 3 5 5 5 4 0 0 0 1 0 0 0 0 3 0 1 2 2 7 100 95 22 59 5
1 0 0 0 0 5 5 5 0 0 0 2 26 3 5 5 2 0 0 0 0 0 0 0 0 5 5 5 94 100 100 100 100
0 0 0 0 0 2 4 5 5 0 0 0 2 5 11 5 5 3 8 12 5 5 5 3 5 5 5 6 94 100 100 100 100
0 0 0 0 0 0 0 0 0 0 1 5 5 5 5 53 76 90 100 36 5 5 5 5 61 39 5 6 47 100 90 36 64
0 0 0 0 0 0 0 0 0 1 4 17 5 12 62 80 100 87 98 94 87 77 20 6 56 26 24 5 7 10 5 5 5
0 0 0 0 0 0 4 0 0 2 76 32 5 32 75 78 100 100 100 90 88 92 100 100 97 27 5 5 5 7 5 5 5
5 5 5 3 0 0 0 0 2 60 56 50 6 62 76 99 100 45 68 98 95 31 88 84 98 94 55 8 5 5 5 5 5
23 5 1 4 56 50 12 19 33 62 18 95 55 57 98 100 100 100 100 100 100 100 86 19 29 79 6 5 5 5 5 5 5
97 82 32 98 100 99 37 90 100 57 5 100 100 84 73 100 100 99 100 100 100 97 50 48 9 45 82 79 73 43 5 0 3
100 100 100 100 100 94 98 100 100 42 86 68 100 32 10 5 67 100 100 100 100 100 100 100 79 43 11 50 5 5 5 5 5

GFSFLT1_prec_cloud_063.txt.gz
Cloud_Cover
7 100 35 11 97 71 60 1 0 0 0 0 0 0 0 0 0 0 0 0 0 83 100 26 4 2 15 5 15 43 47 26 13
0 10 7 20 67 4 10 4 0 0 0 0 0 0 0 4 5 5 4 18 58 19 1 5 5 14 22 69 87 98 47 51 39
0 0 0 0 17 15 0 0 0 0 0 0 0 0 0 0 5 4 5 6 5 6 29 43 69 51 50 98 100 100 95 93 100
0 0 0 0 3 13 0 0 0 0 0 0 0 1 2 4 4 5 12 9 8 45 54 81 77 98 100 100 28 99 100 100 100
0 0 0 1 0 0 0 0 0 0 0 1 5 5 8 24 33 8 21 49 82 11 50 90 53 100 100 20 25 65 45 98 92
0 0 0 0 0 0 0 0 0 0 0 4 3 5 24 23 83 100 100 100 89 76 81 100 100 100 100 74 59 96 19 12 4
3 0 0 0 0 0 0 0 0 0 0 0 0 0 0 2 11 29 86 100 100 50 100 92 98 87 100 80 81 16 24 5 5
5 5 2 1 0 0 0 0 0 0 0 3 1 0 0 0 0 0 0 0 21 54 27 9 19 67 13 4 5 5 3 4 4
15 21 8 6 3 2 0 2 4 3 4 5 5 3 1 0 3 0 0 0 4 0 0 1 4 4 0 0 0 4 5 5 5
11 11 12 6 0 1 0 4 2 1 0 0 3 4 5 3 3 2 0 0 0 0 0 0 0 0 0 0 0 0 0 5 5
11 12 71 6 0 0 0 2 2 5 0 0 0 0 0 5 4 5 4 0 0 0 0 0 0 0 0 0 0 0 0 5 5
0 1 1 0 0 0 0 4 0 5 5 0 0 0 0 5 5 5 5 5 5 0 0 4 4 5 5 1 2 5 5 5 5
0 0 0 0 0 0 0 2 0 0 0 0 0 2 5 5 5 5 9 5 5 5 5 5 4 5 5 5 5 5 6 8 58
5 2 0 0 0 0 0 0 0 0 0 0 0 5 5 5 5 5 55 67 20 5 40 45 5 5 27 5 5 17 86 15 5
5 5 5 6 5 0 4 2 0 0 0 2 28 37 5 5 5 6 52 100 86 98 100 70 18 58 13 82 97 100 99 96 86
54 49 14 5 5 5 5 5 3 4 0 2 12 4 5 5 6 8 45 36 71 80 100 100 40 42 9 52 100 100 100 100 100
91 77 56 54 5 59 86 44 10 5 20 6 94 6 5 5 5 28 47 73 55 13 63 100 100 100 100 97 87 93 84 88 100
100 100 100 100 100 100 64 86 92 54 58 96 59 20 12 64 5 52 6 5 8 80 93 84 93 100 100 100 90 68 29 17 49
100 100 100 100 100 98 100 100 100 100 100 100 95 100 89 6 21 5 1 1 5 5 5 21 98 95 76 73 89 100 100 89 74
93 99 100 100 100 100 100 100 100 100 100 100 96 68 70 60 5 54 2 0 2 5 24 47 5 61 100 100 100 100 100 100 72

GFSFLT1_prec_cloud_066.txt.gz
Cloud_Cover
36 92 5 42 5 4 88 7 0 0 0 0 0 0 0 0 0 0 0 13 3 64 94 56 16 35 5 5 5 5 22 72 100
2 79 0 0 27 0 0 0 0 0 0 0 0 0 0 0 0 0 11 98 42 69 5 6 10 16 97 99 87 85 13 60 82
2 4 19 18 17 4 22 20 18 0 0 0 0 0 0 0 0 0 0 62 1 6 2 8 71 82 38 100 80 79 88 90 91
0 2 2 7 5 8 0 0 0 0 0 0 0 0 0 0 0 0 0 0 3 9 20 77 93 18 20 99 82 72 100 100 100
0 0 0 0 6 2 0 0 0 0 0 0 0 0 0 0 0 0 0 3 3 22 13 73 98 73 61 77 94 100 87 100 99
0 0 0 0 0 0 0 0 0 0 0 0 0 0 0 0 0 0 0 0 16 51 63 11 7 6 18 68 100 98 100 88 100
2 5 1 0 0 0 0 0 0 0 0 0 0 0 0 0 0 0 0 10 50 0 0 0 0 0 1 16 12 35 91 70 15
4 5 5 5 2 5 5 13 0 0 0 0 0 0 0 0 0 0 0 11 34 0 0 0 0 0 0 0 0 0 5 9 0
15 15 5 7 15 5 4 0 0 0 0 0 0 0 0 0 0 0 0 11 11 0 0 0 0 0 0 0 0 0 0 0 0
20 14 14 13 8 5 0 0 0 5 4 2 0 0 0 0 0 0 0 0 0 0 0 0 0 0 0 0 0 0 0 0 0
20 20 22 71 5 3 0 0 2 2 5 3 0 0 0 0 0 0 0 0 0 0 5 2 0 0 0 0 5 3 0 0 0
9 20 21 13 5 0 1 3 3 1 0 0 0 0 0 0 5 5 5 5 5 5 5 5 5 5 1 5 5 5 5 5 5
3 16 11 3 2 0 5 4 1 0 0 0 0 0 0 2 5 4 4 5 5 5 5 6 6 13 5 5 5 6 20 14 8
5 5 5 5 5 3 0 5 3 0 1 0 1 0 2 5 5 5 5 4 5 5 5 13 32 76 68 95 100 100 100 100 99
5 5 5 5 5 5 4 5 5 5 5 5 5 5 1 4 3 5 5 5 5 5 5 5 5 10 5 65 90 100 83 32 100
5 5 5 18 17 27 91 84 37 5 5 5 5 3 2 5 5 5 5 5 5 5 5 5 5 5 5 5 5 70 83 100 100
6 100 99 100 100 100 91 64 75 94 100 100 71 53 14 72 5 5 5 5 33 5 2 0 0 0 0 1 4 5 19 52 89
38 15 72 100 100 100 100 100 100 99 71 45 97 100 100 100 20 50 5 5 5 5 0 0 0 0 0 0 0 1 5 5 5
11 9 63 65 86 100 100 95 100 100 100 100 100 89 100 100 100 99 90 99 49 5 5 5 5 3 0 0 0 1 3 1 5
5 5 5 77 100 100 98 93 100 100 100 100 100 100 97 100 100 100 100 100 100 99 9 14 5 5 0 0 0 0 0 0 2

GFSFLT1_prec_cloud_069.txt.gz
Cloud_Cover
30 48 31 39 5 5 91 53 0 0 0 3 0 0 0 0 0 0 76 74 60 60 35 33 100 21 32 98 9 0 6 5 54
99 78 25 0 14 10 62 0 0 0 0 0 0 0 0 0 0 0 23 90 64 14 0 12 65 98 100 90 94 88 87 89 99
56 40 0 0 6 0 0 11 0 0 0 0 0 0 0 0 0 0 0 1 0 0 10 40 30 5 2 7 35 12 67 81 97
31 58 21 18 24 2 1 13 0 0 0 0 0 0 0 0 0 0 0 0 1 12 13 73 93 28 9 88 48 32 100 100 100
3 0 0 16 24 0 0 0 0 2 0 0 0 0 0 0 0 0 0 0 14 34 29 86 48 2 8 13 1 0 5 20 99
5 0 0 0 0 0 0 1 7 0 0 0 0 0 0 0 0 0 0 7 54 82 67 30 3 0 0 0 0 0 2 2 50
3 4 0 0 0 0 4 4 0 0 0 0 0 0 0 0 0 0 0 22 18 4 0 0 0 0 0 0 0 0 0 0 0
0 2 16 17 2 2 13 19 0 0 0 0 0 0 0 0 0 0 0 16 10 0 0 0 0 0 0 0 0 0 0 0 0
3 0 3 16 10 16 28 1 0 0 0 0 0 0 0 0 0 0 0 0 0 0 0 0 0 0 0 0 0 0 0 0 0
1 5 1 5 12 5 9 0 0 2 0 0 0 0 0 0 0 0 0 0 0 0 0 0 0 0 0 0 0 0 0 0 0
0 0 2 5 3 5 5 3 0 0 0 1 0 0 0 0 0 0 0 0 0 0 0 0 1 5 5 4 2 0 0 5 5
2 0 0 2 3 5 5 0 0 0 0 0 0 0 0 0 0 0 0 0 0 0 0 5 5 5 5 5 5 5 14 15 4
5 5 4 2 5 3 1 0 0 0 0 0 0 0 0 0 0 0 0 0 2 0 1 2 5 5 5 5 5 5 20 41 99
6 5 5 2 5 5 5 4 3 5 3 5 4 3 4 1 0 0 0 4 5 5 5 5 5 5 5 5 5 22 64 75 76
6 4 5 5 6 5 5 1 5 5 5 5 5 5 3 4 5 5 0 3 5 5 5 5 5 5 5 0 0 2 5 5 5
5 5 6 8 5 5 5 5 5 5 5 5 5 22 39 5 2 2 5 5 5 5 5 5 5 5 5 5 5 3 2 0 0
5 5 5 12 5 5 11 75 12 16 16 20 5 62 98 99 15 60 67 5 5 5 5 5 5 18 9 5 5 5 5 5 0
5 5 5 5 5 5 5 40 70 54 54 28 35 73 60 87 88 79 75 9 6 5 29 83 64 18 69 58 60 15 5 5 5
2 5 5 5 5 5 5 5 44 76 100 97 99 85 67 83 100 100 100 100 84 76 51 16 5 59 100 93 86 54 6 5 5
5 18 5 5 5 60 81 26 96 100 47 77 100 100 100 100 100 100 100 100 100 95 30 42 13 12 5 6 21 7 8 86 57

GFSFLT1_prec_cloud_072.txt.gz
Cloud_Cover
40 30 31 9 5 36 58 5 5 5 4 4 5 5 0 0 52 55 64 63 70 14 2 24 15 71 100 13 0 2 49 4 67
39 80 5 5 8 18 99 0 0 0 0 0 0 0 0 8 47 74 100 54 25 89 79 100 89 97 95 85 94 84 95 99 64
5 81 5 18 25 38 8 0 0 0 0 0 0 0 0 4 5 63 100 0 3 36 22 59 24 14 2 0 16 70 48 70 32
0 1 2 27 27 30 20 15 0 0 0 0 0 0 0 8 3 8 46 1 16 21 23 9 75 8 20 5 10 0 0 0 0
5 5 2 1 22 26 14 0 3 0 0 0 0 0 0 15 4 1 14 10 19 52 57 96 17 14 17 4 0 0 0 0 0
5 21 5 4 3 16 2 6 6 0 0 0 0 0 5 0 0 0 2 0 26 19 68 19 0 0 0 0 0 0 0 0 0
5 1 1 5 2 1 4 1 0 0 0 1 0 0 0 0 0 0 0 6 0 0 0 0 0 0 0 0 0 0 0 0 0
0 0 0 3 12 0 0 7 0 0 0 0 0 0 0 0 0 0 0 23 0 0 0 0 0 0 0 0 0 0 0 0 0
0 0 2 3 1 0 1 2 0 0 0 0 0 0 0 0 0 0 0 0 0 0 0 0 0 0 0 0 0 0 0 0 0
0 0 1 5 3 0 2 5 2 2 0 0 3 0 0 0 0 0 4 0 0 0 0 0 0 0 0 0 0 0 0 0 0
0 0 0 2 5 1 0 5 5 1 5 5 1 0 0 0 0 0 6 0 0 0 0 0 0 0 0 2 3 5 5 5 4
0 0 0 0 0 0 0 4 4 1 0 0 0 2 0 0 0 0 0 0 0 0 0 5 0 0 0 4 5 5 5 5 3
3 5 3 1 1 3 1 1 0 0 0 1 0 0 0 0 0 0 0 0 0 0 5 5 4 1 0 0 1 0 4 4 2
5 5 5 5 5 5 3 4 0 0 0 0 3 3 0 0 0 0 0 0 0 0 5 5 5 5 5 5 4 5 5 3 0
37 8 5 5 5 6 0 0 0 0 0 1 4 4 3 0 0 0 0 3 0 4 5 5 5 5 5 5 5 5 3 3 5
25 20 12 5 12 14 5 0 2 0 0 5 5 5 5 5 5 5 5 37 5 5 5 5 5 5 5 5 5 5 5 5 5
65 80 70 5 5 41 44 5 3 4 5 4 10 9 5 5 35 45 86 62 74 10 6 5 5 5 5 5 5 5 5 5 77
100 98 62 5 5 36 48 6 5 5 5 4 4 31 5 10 41 80 100 98 96 83 58 50 48 7 5 5 4 5 8 5 5
100 100 100 88 42 38 23 49 47 24 5 5 5 5 5 10 77 89 97 100 100 100 100 100 92 43 6 5 5 14 5 5 5
100 100 100 100 100 100 100 50 96 100 72 76 36 28 37 53 64 100 100 100 100 100 100 100 100 100 61 93 100 77 12 97 51

GFSFLT1_prec_cloud_075.txt.gz
Cloud_Cover
5 27 15 14 35 89 57 7 5 5 10 5 3 0 0 80 83 29 4 35 8 33 52 6 47 52 45 2 3 73 99 100 90
58 16 12 5 5 49 93 5 4 5 4 0 0 0 0 94 100 88 45 12 56 87 100 100 100 72 97 100 89 98 100 82 93
99 14 5 8 14 54 14 0 0 0 0 0 0 0 0 24 69 92 44 15 6 37 100 100 79 54 30 39 75 84 61 67 39
59 6 9 8 25 13 11 0 0 0 1 3 0 0 0 50 21 76 10 0 18 38 27 3 10 14 3 4 0 0 0 0 0
5 39 0 1 23 5 3 2 0 0 2 2 5 0 0 29 4 15 0 0 10 28 18 7 3 1 0 0 0 0 0 0 0
5 17 14 22 4 4 5 3 4 4 0 0 0 0 26 19 3 5 0 0 0 1 0 0 0 0 0 0 0 0 0 0 0
5 2 2 0 16 3 0 0 0 0 0 0 0 0 5 0 0 0 0 0 0 0 0 0 0 0 0 0 0 0 0 0 0
0 0 0 0 12 0 0 1 0 0 0 0 0 0 0 0 0 0 0 0 0 0 0 0 0 0 0 0 0 0 0 0 0
0 1 5 4 0 0 0 0 1 19 0 0 0 0 0 0 0 0 0 0 0 0 0 0 0 0 0 0 0 0 0 0 0
4 5 2 0 0 0 0 16 23 1 0 0 0 0 0 0 0 0 0 0 0 0 0 0 0 0 0 0 0 0 0 0 0
0 0 0 0 0 0 1 16 28 12 2 0 0 0 0 0 0 0 2 37 0 0 0 0 0 0 0 0 5 4 5 0 1
0 1 0 0 0 0 0 16 3 0 2 0 0 0 0 0 0 0 0 0 0 0 0 0 0 2 2 0 5 5 5 5 5
0 0 0 0 0 0 1 5 5 5 1 0 0 0 0 0 0 0 0 0 0 0 0 0 0 0 0 5 5 5 5 5 14
0 0 2 0 0 5 5 5 5 5 2 2 0 0 0 0 0 1 0 0 0 0 0 2 1 4 2 22 5 5 2 4 4
5 5 5 5 5 5 8 8 5 5 5 5 0 3 1 3 0 5 0 0 4 4 5 5 1 0 2 5 5 5 0 0 0
5 5 12 7 24 16 99 87 54 28 5 5 5 4 1 4 0 0 0 0 5 5 5 5 5 5 5 5 2 5 5 5 0
85 90 13 45 14 5 79 100 59 14 40 58 5 5 5 17 5 5 5 12 5 5 5 10 27 50 5 11 77 68 9 5 0
34 96 95 50 15 50 76 99 97 100 98 98 15 100 85 69 46 18 12 12 18 21 76 97 90 86 42 98 10 92 100 99 17
50 50 98 100 100 96 50 6 56 93 100 100 100 96 90 85 99 92 60 90 96 100 100 99 61 100 100 99 98 100 100 100 100
100 100 100 100 51 88 84 32 63 47 94 100 100 100 100 100 100 100 100 100 100 100 100 100 100 100 100 86 54 52 89 74 100

GFSFLT1_prec_cloud_078.txt.gz
Cloud_Cover
5 6 3 5 40 5 25 5 5 5 5 5 5 5 65 100 20 28 14 37 58 90 97 98 100 78 56 97 55 18 100 62 86
41 5 31 72 90 89 5 5 5 5 5 5 4 0 100 100 100 72 23 16 7 4 72 100 87 100 43 33 96 98 100 100 98
5 5 13 13 5 69 5 5 5 5 4 2 0 0 27 85 54 26 0 15 29 81 100 100 100 69 38 21 28 25 28 7 50
73 5 5 24 23 10 5 4 0 0 0 0 0 0 15 60 44 14 0 0 99 74 8 16 11 1 0 0 0 0 0 0 0
91 31 2 5 18 5 5 0 0 5 0 0 0 0 0 0 0 0 0 0 0 0 0 0 0 0 0 0 0 0 0 0 0
5 14 5 5 5 4 0 0 0 0 0 0 0 0 1 12 0 0 0 0 1 9 0 0 0 0 0 0 0 0 0 0 0
15 11 15 5 4 5 2 0 0 0 0 0 0 0 0 0 0 0 0 0 1 0 0 0 0 0 0 0 0 0 0 0 0
9 5 5 5 3 0 0 0 0 0 0 0 0 0 0 0 0 0 0 0 0 0 0 0 0 0 0 0 0 0 0 0 0
0 0 0 0 0 0 0 0 0 0 0 0 0 0 0 0 0 0 0 0 0 0 0 0 0 0 0 0 0 0 0 0 0
0 0 0 0 4 0 0 0 0 0 0 0 0 0 0 0 0 0 0 0 0 0 0 0 0 0 0 0 0 0 0 0 0
4 0 0 2 0 0 0 0 6 0 0 0 0 0 0 0 0 0 0 0 0 0 0 0 3 0 0 0 0 0 0 0 5
1 2 0 0 0 0 0 0 0 0 0 0 0 0 0 0 1 3 0 0 0 5 5 0 0 0 0 0 0 0 0 0 3
5 5 5 5 0 0 0 0 0 3 5 5 5 5 5 5 5 5 5 2 3 0 0 0 0 0 0 0 0 0 0 0 0
5 5 4 5 5 5 5 5 5 5 5 5 6 5 5 38 11 5 5 1 4 0 0 2 3 1 4 0 0 0 0 0 0
5 5 5 5 5 5 5 5 9 5 5 5 28 34 90 15 40 39 5 5 5 5 5 5 5 5 5 5 4 1 5 0 4
5 5 27 100 75 5 5 5 43 55 6 5 40 98 100 100 94 97 100 100 21 5 10 5 5 5 5 10 5 5 9 5 58
47 100 95 54 8 17 32 14 47 58 32 82 81 87 100 92 100 100 100 97 70 92 23 5 49 37 99 9 15 60 15 100 100
32 79 100 100 60 65 88 81 91 100 100 100 100 100 97 100 100 100 100 93 100 100 60 100 94 100 100 100 91 88 100 100 100
99 73 70 62 66 61 89 100 100 100 100 100 100 100 100 72 100 100 100 100 100 100 100 100 100 100 100 100 100 100 100 83 24
78 100 100 76 97 100 100 100 100 100 100 100 100 100 90 55 88 99 100 100 100 100 100 100 100 100 100 100 100 100 100 100 100

GFSFLT1_prec_cloud_081.txt.gz
Cloud_Cover
7 14 6 23 5 18 6 11 5 5 12 5 0 34 26 0 26 88 63 91 100 100 74 100 100 100 29 63 85 80 88 99 69
5 5 5 15 5 5 5 5 11 22 5 5 5 51 79 54 0 29 2 21 27 10 98 100 100 100 96 79 100 100 100 100 100
5 5 5 5 5 4 5 5 5 5 5 5 5 5 84 13 0 0 0 2 44 28 100 100 100 51 24 12 7 2 1 0 23
0 0 0 14 5 5 5 4 1 2 5 5 5 3 1 0 0 0 0 0 4 9 4 0 7 0 0 0 3 0 0 0 0
0 0 0 0 0 0 0 5 5 5 5 2 0 0 0 0 0 0 0 0 3 0 2 1 2 0 0 0 0 0 0 0 1
0 4 5 1 1 2 5 5 4 1 0 0 0 0 0 0 0 0 0 0 3 0 0 0 0 0 0 0 0 0 0 0 0
5 5 5 5 5 5 5 5 3 3 1 0 0 0 0 0 0 0 0 0 5 0 0 0 0 0 0 0 0 0 0 0 0
6 19 9 6 5 5 5 2 4 0 0 0 0 0 0 0 0 0 0 0 0 0 0 0 0 0 1 2 0 0 0 0 0
45 16 14 15 5 5 3 26 0 0 0 0 0 0 0 0 0 0 0 0 0 0 0 0 0 0 0 0 0 0 0 0 0
4 5 3 2 1 1 2 9 0 0 0 0 0 0 0 0 1 0 0 0 0 0 1 2 5 0 0 0 1 0 0 0 0
5 5 4 0 0 0 0 0 0 0 0 0 0 0 0 0 0 1 0 0 2 4 5 5 1 0 0 0 0 0 0 0 0
5 5 5 5 4 0 0 1 2 0 0 0 5 0 5 0 0 1 3 5 5 5 5 6 5 4 0 0 0 0 0 0 0
5 5 5 5 5 5 5 3 3 3 5 5 5 5 0 1 5 5 5 5 7 55 57 5 5 5 5 5 2 2 5 5 5
32 97 17 5 5 5 5 5 5 5 5 9 5 4 2 5 5 21 10 67 96 100 100 100 5 5 10 17 5 5 4 5 5
53 85 9 5 5 5 5 5 6 36 6 5 5 5 5 23 77 19 63 100 100 100 100 100 46 68 96 96 69 8 5 5 16
43 45 30 5 5 5 5 5 5 5 5 5 5 14 59 100 100 100 100 100 100 100 100 100 35 90 100 100 85 100 56 100 98
17 6 5 5 5 26 5 15 5 7 12 7 12 65 97 100 100 100 100 100 100 100 100 58 18 82 100 100 100 100 100 100 100
41 5 5 5 13 5 5 87 78 97 94 5 32 99 100 100 100 100 100 100 100 78 85 99 98 80 79 100 100 100 100 100 100
54 89 52 9 5 35 39 41 84 99 100 65 100 100 100 100 100 100 100 100 100 83 59 94 99 100 100 100 100 100 100 100 100
97 91 83 58 81 78 95 89 98 100 100 100 98 94 100 100 99 91 50 98 87 76 100 100 100 100 100 100 100 100 100 100 100

GFSFLT1_prec_cloud_084.txt.gz
Cloud_Cover
0 5 16 5 10 6 6 7 3 4 1 5 5 5 5 37 49 20 70 80 68 12 58 43 99 47 15 98 52 97 98 37 100
0 1 9 2 4 2 4 5 5 5 1 0 4 5 5 4 2 5 5 44 66 50 100 100 100 100 100 95 100 100 100 100 78
0 1 0 1 5 4 3 3 0 0 0 0 0 3 5 5 5 5 0 0 7 75 62 70 86 54 26 3 0 0 0 2 8
0 0 0 0 3 3 5 4 3 0 0 0 0 1 0 0 4 0 0 1 0 0 5 4 1 0 0 0 0 0 1 0 0
0 0 0 0 0 0 0 0 0 0 0 0 0 5 4 0 0 0 0 0 0 0 0 0 1 0 0 0 0 0 0 0 0
0 0 1 1 5 5 5 5 2 4 5 5 5 0 0 0 0 0 0 0 0 0 0 0 0 0 0 0 0 4 4 0 0
0 3 5 5 4 5 5 5 5 5 2 3 0 0 0 0 0 0 0 0 0 0 0 0 0 0 0 0 3 5 5 3 0
13 28 16 8 2 4 1 4 5 5 5 0 0 0 0 0 0 0 0 0 0 0 0 4 0 0 3 5 5 5 5 5 5
22 30 29 20 12 6 5 25 5 4 0 0 0 0 0 2 2 0 0 0 0 5 4 0 0 4 5 8 26 47 5 1 5
20 26 30 26 21 40 34 20 12 2 0 0 0 0 0 0 12 2 0 5 5 0 0 0 2 5 24 61 45 58 5 5 5
5 12 13 25 35 8 7 12 8 5 0 0 0 0 2 0 0 3 5 2 0 0 0 4 5 7 93 99 100 72 5 5 5
5 5 3 3 1 0 1 5 5 5 5 0 0 0 1 5 5 5 2 0 0 0 5 5 5 22 100 100 100 100 5 53 29
5 5 0 1 1 3 5 5 5 4 5 2 5 5 5 5 5 5 5 5 5 5 5 5 48 79 100 100 100 100 94 100 92
5 5 5 5 5 5 5 5 5 2 0 3 5 5 5 5 5 5 5 8 19 36 48 100 100 100 100 100 100 100 100 100 100
5 10 5 62 81 15 5 5 5 5 5 5 5 29 52 5 63 18 46 17 47 72 97 100 100 100 100 100 100 100 100 100 100
5 67 100 100 100 100 35 5 11 5 5 5 52 99 70 57 12 94 71 44 79 100 100 100 100 100 100 100 100 97 100 100 100
99 100 100 100 93 84 49 38 24 6 15 52 66 43 54 80 95 59 86 99 100 100 100 100 100 92 100 100 100 100 100 100 100
100 100 100 92 62 75 84 72 94 53 37 38 25 16 45 66 98 97 99 98 100 100 96 82 74 85 100 100 100 100 100 100 100
100 99 99 100 80 98 100 100 98 97 96 36 44 50 57 92 100 100 99 79 8 6 90 99 100 100 100 100 100 100 100 100 100
100 100 100 100 100 100 100 100 100 100 100 100 100 100 100 100 100 100 99 22 40 78 100 100 100 100 100 100 100 100 100 100 100

GFSFLT1_prec_cloud_087.txt.gz
Cloud_Cover
9 40 50 3 0 0 0 0 0 0 4 5 5 5 5 5 5 0 40 0 100 92 100 56 20 44 98 96 97 83 28 47 68
5 42 4 0 0 0 0 0 0 0 0 4 0 0 5 2 0 0 3 67 89 96 100 99 100 100 100 95 80 70 21 78 99
1 26 0 0 0 0 0 0 0 0 0 0 0 0 0 0 0 2 5 5 20 9 51 31 75 56 28 11 4 1 2 6 9
0 19 0 0 0 0 0 0 0 0 0 0 0 0 0 0 4 5 5 1 6 0 10 13 9 7 4 3 0 1 2 7 4
0 0 0 0 0 0 0 0 0 0 0 5 5 3 5 5 3 5 1 0 0 0 0 3 0 0 0 0 0 0 0 0 5
0 0 0 0 0 0 0 0 0 5 5 4 5 5 4 0 0 1 0 0 0 0 0 2 0 0 0 0 4 1 2 5 7
2 0 0 0 0 0 0 4 5 5 1 0 4 2 3 0 0 0 0 0 0 0 0 0 0 0 0 1 7 5 5 9 8
31 34 30 12 0 1 0 4 4 0 0 0 0 5 5 5 0 0 0 0 0 0 0 0 0 0 0 0 0 2 20 52 76
38 40 35 27 19 8 2 21 0 0 0 0 5 5 5 1 0 0 0 0 0 0 0 0 0 4 6 0 0 0 68 100 100
23 33 35 30 23 7 19 21 14 4 5 5 5 2 0 0 7 5 0 0 0 3 0 0 0 0 2 3 5 5 33 100 100
19 31 35 32 27 17 11 17 17 5 5 4 0 0 0 0 0 5 0 5 5 5 2 4 5 5 6 7 5 5 85 100 100
5 19 33 24 27 5 7 5 4 1 0 0 3 0 1 0 3 1 5 5 5 5 5 5 59 58 23 62 45 100 100 97 100
5 7 11 12 19 21 12 6 5 2 5 5 5 5 5 5 5 5 18 5 5 5 5 94 100 100 100 100 100 76 100 100 100
57 5 5 5 5 7 5 5 5 2 5 5 5 5 38 5 5 6 21 5 5 5 80 100 100 100 100 100 100 100 100 100 100
57 15 70 15 5 5 5 5 5 5 5 5 5 16 44 5 22 36 10 5 5 5 70 100 100 100 100 99 79 18 99 90 100
96 77 65 14 47 7 5 5 48 40 7 5 17 87 39 93 100 93 5 29 69 5 39 100 100 100 8 5 10 27 72 100 100
95 64 51 44 18 62 60 94 100 53 35 99 100 100 100 100 100 62 100 53 23 52 100 100 96 40 60 70 90 100 100 100 100
41 22 69 76 99 100 100 100 100 89 100 96 100 100 100 100 100 100 66 10 77 89 75 59 42 97 99 100 100 100 100 100 100
100 100 91 92 96 91 100 100 100 100 100 100 100 100 100 100 100 100 96 98 98 100 100 100 100 100 100 100 100 100 100 100 100
100 100 100 100 89 100 100 100 100 100 100 100 100 100 100 100 100 100 100 88 99 67 81 83 7 96 100 100 100 100 100 100 100

GFSFLT1_prec_cloud_090.txt.gz
Cloud_Cover
62 100 100 6 14 5 4 5 7 1 1 0 2 5 0 0 2 27 2 75 100 80 4 0 23 70 99 84 74 17 59 43 15
33 36 27 5 1 0 0 4 0 0 8 0 4 0 0 0 0 0 0 73 68 74 63 58 68 96 100 28 8 6 2 75 92
35 7 66 5 0 0 0 0 0 0 0 0 0 0 0 0 0 0 3 3 4 5 5 4 67 44 14 1 0 0 1 5 3
42 1 5 0 0 0 0 0 0 0 0 0 0 0 0 0 0 0 0 4 4 5 5 5 1 2 1 0 1 0 0 0 0
84 4 0 0 0 0 0 0 0 0 0 0 0 0 0 0 0 0 2 3 5 5 5 1 0 0 0 0 2 0 0 0 0
31 0 0 0 0 0 0 0 0 0 0 0 0 0 3 0 0 0 0 5 5 5 0 0 0 0 0 0 4 2 2 0 3
5 2 0 0 0 0 2 5 4 2 0 0 0 3 0 0 0 0 1 5 4 0 0 0 0 0 0 5 0 6 14 5 8
32 40 36 6 0 5 5 5 5 0 0 0 0 0 0 0 0 5 5 0 0 0 0 0 0 0 0 0 2 5 11 70 8
54 45 39 28 19 7 6 17 5 5 0 0 0 0 0 2 5 5 5 0 0 0 0 0 0 0 1 3 11 56 99 100 100
51 44 46 35 28 12 18 13 9 5 0 0 0 0 5 5 5 4 0 0 1 0 1 5 5 5 4 5 77 100 100 100 100
32 40 63 65 28 16 8 11 8 5 0 5 4 2 5 0 0 2 1 5 5 5 5 5 5 5 5 9 5 97 100 100 100
88 68 84 83 82 70 37 7 5 6 5 5 5 5 0 2 3 0 3 5 5 5 5 5 5 3 21 25 10 95 100 100 100
42 59 71 29 57 52 33 30 14 10 5 5 5 5 5 5 5 4 7 5 14 62 14 5 5 5 25 12 79 74 100 98 10
48 29 22 46 61 36 23 23 5 5 5 5 2 5 5 5 5 5 6 43 92 5 5 5 5 5 5 6 61 100 80 5 5
100 98 97 98 96 95 74 47 5 5 5 5 5 5 5 5 5 20 86 96 52 5 5 5 5 5 7 98 19 35 99 61 6
100 100 100 100 100 100 100 93 82 5 14 5 18 43 7 5 29 80 58 75 9 5 5 5 57 97 32 26 16 5 41 44 86
97 100 100 100 100 100 100 100 9 5 5 53 52 51 45 96 91 100 99 54 5 5 29 89 34 48 32 50 76 100 100 100 98
100 100 100 100 100 100 100 69 48 33 53 37 13 63 100 100 100 100 98 14 6 50 71 96 100 100 100 100 100 100 100 100 100
100 100 100 100 100 100 100 64 65 78 92 69 91 100 100 100 100 100 100 94 94 98 66 100 96 100 100 88 75 45 64 99 100
100 100 100 100 100 100 100 94 95 100 90 100 100 100 100 100 100 100 100 100 100 66 86 100 100 100 100 100 100 73 100 100 98

GFSFLT1_prec_cloud_093.txt.gz
Cloud_Cover
68 100 100 99 54 43 83 8 5 5 12 3 0 15 2 0 17 10 67 12 7 2 8 1 4 0 0 2 0 0 7 19 8
27 5 5 12 6 63 27 5 4 16 3 8 1 0 0 0 0 0 0 3 5 10 0 1 5 73 4 0 1 0 0 3 1
79 5 5 10 34 26 4 7 13 0 5 3 0 0 0 0 0 0 0 0 0 0 4 3 2 0 0 0 0 0 0 0 0
8 11 18 5 5 7 4 9 0 0 0 0 0 0 0 0 0 0 0 0 0 0 0 0 0 0 0 0 0 0 0 0 0
26 5 5 5 5 5 5 3 0 0 0 0 0 0 0 0 0 0 0 0 0 0 2 0 0 0 0 0 0 0 0 0 0
6 4 0 0 0 1 4 0 0 0 0 4 0 0 5 0 0 0 0 0 0 0 5 4 0 0 0 0 0 0 0 0 1
46 22 0 0 0 0 1 0 0 0 2 5 2 5 0 0 0 0 0 0 0 4 5 0 0 0 5 6 1 0 0 1 5
20 74 39 37 13 6 5 1 0 0 0 2 5 5 0 0 0 0 0 0 2 1 0 0 4 5 4 8 1 2 5 4 5
45 46 37 17 5 5 5 4 5 0 0 5 5 5 5 5 5 0 0 5 5 0 0 0 5 5 5 5 0 5 5 5 5
57 54 51 57 46 29 6 8 5 5 3 2 5 5 5 5 4 0 5 5 5 0 5 5 5 5 5 5 5 5 5 5 5
31 49 53 44 30 8 34 43 12 5 18 5 5 5 5 5 5 5 5 5 0 2 3 5 5 5 10 5 2 5 5 5 5
61 36 41 36 22 34 45 9 52 50 50 43 6 6 5 5 5 5 5 2 0 5 5 5 5 5 29 38 0 5 5 5 8
100 68 70 60 13 29 58 29 76 86 95 100 51 55 5 5 5 5 5 5 5 5 5 5 5 5 5 30 97 23 5 20 92
79 100 100 54 81 100 97 75 94 100 100 100 100 79 30 5 10 12 5 5 5 5 5 5 5 5 1 7 30 38 78 82 100
65 78 100 100 100 100 100 100 100 100 99 100 100 89 6 5 12 5 5 5 5 5 5 6 25 5 5 5 5 7 100 100 100
8 37 100 100 100 100 98 99 100 100 100 100 98 71 38 66 47 5 5 5 5 5 5 51 5 5 5 5 5 40 82 100 100
100 100 100 100 100 99 79 100 100 100 100 100 100 33 74 78 41 10 6 5 8 62 39 39 6 50 56 78 99 100 100 97 100
100 100 100 100 100 100 100 98 100 100 100 96 65 100 100 98 96 90 36 89 89 28 88 100 67 87 91 100 94 100 100 100 100
100 100 100 100 100 100 100 100 100 100 98 50 100 98 100 100 100 100 100 100 98 98 100 100 100 79 99 100 100 100 100 100 32
100 97 98 100 77 100 100 100 98 100 100 100 91 100 99 100 100 100 100 100 100 100 100 100 100 100 100 100 100 100 100 100 100

GFSFLT1_prec_cloud_096.txt.gz
Cloud_Cover
33 5 5 5 6 65 68 5 15 26 11 4 4 0 0 19 0 0 19 45 32 96 33 19 0 4 3 48 51 32 23 18 18
100 17 7 12 94 100 27 46 5 3 5 18 13 0 0 3 0 0 0 0 0 0 0 0 0 0 0 0 0 0 0 0 0
22 45 40 72 34 46 11 15 6 5 2 4 4 0 0 0 0 0 0 0 1 1 0 0 0 0 0 0 0 0 0 0 0
5 10 5 2 5 7 22 10 3 3 11 0 0 0 0 0 0 0 5 5 0 0 0 0 0 0 0 0 0 0 0 0 0
1 5 5 5 5 5 0 1 0 0 0 0 0 0 0 0 5 5 5 5 4 3 0 0 0 0 0 0 0 0 0 0 0
16 17 5 5 34 1 0 0 0 0 1 0 0 0 0 0 5 4 5 5 5 5 5 0 0 0 3 4 0 0 0 0 0
100 67 2 5 0 5 7 0 0 0 1 4 0 0 0 0 0 5 5 5 5 5 5 5 1 2 5 0 5 4 0 0 0
96 58 34 18 13 0 3 2 0 0 5 3 0 4 0 0 0 5 5 47 28 11 5 5 5 5 3 2 5 1 0 0 0
20 33 20 11 5 5 5 2 5 5 5 5 5 5 5 0 4 5 5 96 39 73 6 5 22 11 5 5 5 1 0 0 0
4 9 78 16 5 5 5 5 5 5 5 5 5 5 5 5 4 5 6 5 5 7 7 32 23 5 5 5 5 2 0 3 0
63 18 50 50 22 8 14 13 50 47 23 5 5 5 5 5 5 5 5 5 53 91 29 5 5 30 23 6 5 5 3 5 0
61 26 30 51 39 38 45 25 5 5 5 5 5 5 5 90 100 59 5 28 100 91 80 8 21 5 52 84 26 5 5 5 4
47 71 100 100 91 76 61 60 40 19 61 88 19 85 100 100 46 43 28 14 83 78 73 6 11 20 32 100 100 8 6 5 5
38 92 100 100 100 100 98 73 87 100 100 100 100 100 100 84 88 100 6 7 35 75 50 59 5 5 5 54 92 97 69 5 5
98 100 100 100 100 100 100 100 100 100 100 100 100 94 99 100 100 29 5 73 69 36 78 57 41 5 5 5 5 10 100 87 0
100 92 56 40 91 100 100 69 51 100 100 100 100 100 100 100 99 5 17 74 80 43 57 39 13 49 50 5 5 69 100 100 11
100 100 100 100 100 100 100 100 100 100 100 100 100 100 100 95 10 24 8 95 38 69 100 20 52 22 86 96 95 100 100 58 100
100 100 100 100 100 100 100 100 100 100 100 100 100 100 100 82 70 10 42 40 100 100 58 70 93 72 72 80 57 96 99 100 93
100 100 100 100 100 100 100 100 96 99 100 100 100 100 98 100 100 99 100 97 100 99 96 100 98 100 100 87 100 58 77 100 100
100 100 100 100 100 98 92 96 100 99 69 91 89 100 87 100 100 100 100 100 100 100 100 100 100 100 100 100 94 6 100 100 100

GFSFLT1_prec_cloud_099.txt.gz
Cloud_Cover
5 14 100 100 39 6 2 5 11 5 5 5 5 0 2 44 12 2 6 12 67 1 5 5 5 0 5 10 18 4 5 3 2
0 3 5 96 99 29 16 34 6 9 10 5 2 0 0 0 0 0 0 0 0 0 5 5 5 4 0 0 0 0 0 0 0
0 0 7 100 100 44 43 5 6 13 16 0 0 0 0 0 0 0 0 0 5 5 5 9 5 5 4 2 0 0 0 0 0
0 0 5 100 16 6 13 13 5 8 0 4 0 0 0 0 0 0 0 0 5 5 5 8 5 5 5 5 5 5 0 1 0
5 0 0 1 0 5 4 0 13 10 5 0 0 0 0 0 0 0 0 0 0 4 5 5 5 5 5 5 5 5 5 3 0
7 0 0 5 5 2 3 2 3 0 0 0 0 0 0 0 0 0 5 0 0 5 5 5 11 17 5 5 5 4 2 0 0
86 36 16 45 5 5 9 5 0 0 3 2 0 0 0 2 3 0 3 4 2 5 5 7 49 18 5 6 5 5 5 0 0
100 16 6 5 14 5 0 2 2 4 3 0 0 0 0 5 5 4 5 5 5 5 13 19 60 31 5 5 5 5 5 0 0
94 65 15 2 0 2 3 5 4 0 5 5 1 5 5 5 5 5 5 5 9 99 7 16 5 5 43 41 5 5 5 0 0
28 8 20 21 1 0 1 5 4 5 17 5 5 5 13 7 5 13 8 34 100 76 5 8 19 5 47 5 5 5 5 2 3
5 22 18 17 26 17 22 5 5 35 28 34 58 64 34 20 65 5 71 100 100 76 8 98 5 6 7 5 5 5 5 5 4
6 5 12 23 20 16 18 12 16 56 71 64 85 80 90 100 81 100 100 100 100 18 66 37 10 6 36 97 48 5 5 5 5
26 35 9 5 17 61 84 100 100 100 100 91 26 40 100 100 100 100 100 61 81 95 80 64 32 18 60 100 100 58 5 5 4
57 33 27 51 60 46 44 100 100 100 100 73 49 61 78 100 100 100 100 99 94 9 6 63 79 94 97 67 100 87 26 7 5
97 74 68 85 31 27 62 84 41 9 65 46 5 17 20 100 100 100 81 86 6 19 53 58 81 84 48 20 76 95 95 100 86
100 100 100 100 100 95 95 34 5 50 26 43 46 100 100 100 100 93 99 11 8 33 5 76 100 11 14 36 88 100 100 72 82
100 100 100 100 100 100 100 100 100 100 100 100 100 100 100 99 94 89 71 6 8 38 59 18 11 58 56 99 90 18 41 32 70
100 100 100 100 100 100 100 100 100 100 100 100 100 100 82 100 100 99 63 12 43 21 43 19 97 82 78 47 86 100 52 100 97
100 100 100 100 100 100 100 100 100 100 100 98 73 100 100 100 66 100 96 42 5 43 64 93 66 94 100 54 98 100 100 100 100
100 100 100 100 100 100 100 100 100 98 100 100 100 100 99 100 100 99 100 100 100 99 100 100 100 100 56 100 100 100 100 100 100

GFSFLT1_prec_cloud_102.txt.gz
Cloud_Cover
60 74 37 4 0 4 22 97 48 5 6 5 5 5 11 8 0 0 0 0 0 0 0 0 1 5 5 0 2 0 0 0 0
5 5 16 5 6 80 99 46 20 86 28 10 2 0 0 0 0 0 0 0 0 0 0 0 1 5 5 5 5 5 5 0 0
0 73 34 18 12 9 0 4 9 10 5 5 2 0 0 0 0 0 0 0 0 0 0 2 5 5 5 5 5 5 1 5 0
5 100 100 54 5 6 0 10 5 4 1 0 0 0 0 0 0 0 0 0 0 0 4 5 5 5 5 5 5 5 5 5 5
5 9 100 37 24 16 5 2 5 0 0 0 2 0 0 0 0 0 0 0 0 0 5 5 5 5 5 5 5 5 5 3 5
0 2 81 5 21 38 5 7 3 0 5 4 2 0 0 0 0 0 0 5 5 5 5 5 21 65 6 5 5 5 0 2 5
0 0 5 1 1 3 5 5 5 4 10 5 0 0 0 0 0 4 5 5 5 5 5 9 100 100 8 5 5 1 0 0 3
0 21 13 10 4 4 5 5 5 1 0 0 0 0 0 5 5 5 5 5 5 5 5 100 100 100 64 20 5 5 4 5 5
43 0 0 0 0 0 0 0 0 0 7 0 0 0 5 7 5 5 5 5 6 28 100 100 100 100 25 5 5 5 5 5 5
0 0 0 0 0 0 0 0 0 0 0 4 5 2 6 8 5 6 5 6 91 100 100 100 100 60 12 5 5 5 5 5 5
8 2 8 2 3 2 0 0 2 0 5 5 5 9 5 37 68 9 5 92 100 100 100 100 99 69 5 5 5 5 5 5 5
87 100 36 5 5 5 5 18 24 58 46 40 9 5 19 45 81 7 16 59 100 100 100 100 58 5 28 62 40 5 5 5 5
5 6 17 5 19 6 5 12 87 100 100 100 100 100 83 49 30 5 5 5 32 100 100 100 6 5 30 7 87 29 5 5 5
5 5 5 5 15 5 5 45 27 14 18 36 17 5 5 3 4 3 1 62 100 100 100 70 52 20 12 6 69 92 5 5 5
37 58 76 62 66 49 55 37 39 38 18 5 5 5 3 0 3 42 97 50 96 94 100 88 65 53 40 77 13 90 100 93 99
100 100 100 100 100 100 100 100 100 100 100 95 100 96 85 100 100 62 98 92 9 38 35 51 58 76 78 100 78 98 50 100 100
100 100 100 100 100 100 100 100 100 100 100 100 100 100 100 98 100 99 23 9 45 36 5 28 31 62 100 100 100 100 100 100 100
100 100 99 100 100 100 100 100 100 77 100 97 100 80 78 79 83 82 56 6 49 79 98 80 79 75 100 100 100 100 100 100 100
100 100 100 100 100 98 100 100 100 100 100 100 98 67 89 84 89 99 69 62 78 82 87 93 64 100 62 100 100 99 37 100 98
100 100 100 100 100 100 100 100 100 98 93 100 100 95 79 100 99 91 98 88 73 66 97 97 93 100 99 56 7 99 100 100 100

GFSFLT1_prec_cloud_105.txt.gz
Cloud_Cover
100 44 56 9 5 5 5 5 5 5 5 3 14 6 5 5 31 0 0 0 0 0 0 0 0 0 0 0 0 0 0 0 3
45 54 5 5 5 8 5 5 5 5 5 5 5 58 4 4 0 0 0 0 0 0 0 0 0 2 5 5 5 0 0 0 0
90 5 5 48 7 5 5 5 4 5 5 3 2 4 1 0 0 0 0 0 0 0 0 0 0 0 1 5 5 4 1 0 0
9 0 8 5 5 5 4 5 5 5 10 22 5 5 0 0 5 5 0 0 0 0 0 0 5 4 4 6 70 5 5 0 0
100 100 23 5 18 5 5 5 5 5 5 5 5 5 5 4 2 0 0 0 0 0 0 5 5 5 5 100 5 5 5 0 0
2 100 68 2 4 5 5 5 5 9 5 4 4 5 2 0 0 0 0 0 2 5 5 5 5 6 96 75 10 32 5 0 0
0 97 4 0 0 2 5 4 4 5 5 2 0 0 0 0 0 0 0 0 5 5 5 5 42 100 43 100 85 5 5 0 0
20 25 28 12 4 2 0 0 0 0 0 0 0 0 0 0 4 4 5 5 5 5 5 5 85 34 44 91 14 5 0 1 2
28 27 22 14 9 5 0 0 0 0 0 0 0 0 0 5 5 5 5 5 5 5 5 5 68 8 5 5 5 5 1 5 5
0 0 2 2 0 1 0 0 0 0 0 0 1 5 5 5 5 5 5 5 5 5 64 5 5 5 5 16 41 4 5 4 5
0 0 0 0 0 0 0 0 4 5 3 4 5 36 72 21 17 8 5 56 100 52 7 5 35 96 6 9 10 5 4 0 5
0 0 0 2 0 5 5 5 5 17 53 72 89 98 66 81 57 96 100 37 5 5 0 5 100 18 23 9 5 5 5 5 5
34 49 12 13 5 3 5 6 21 59 29 17 62 40 10 50 27 5 5 5 0 2 56 76 77 80 21 57 31 2 4 20 9
100 78 81 64 10 5 5 6 21 25 11 9 5 5 6 9 5 5 5 37 100 89 26 100 41 11 11 16 100 78 21 4 5
100 66 5 44 7 26 25 63 40 11 58 11 21 92 91 10 33 55 100 100 88 39 5 50 79 73 5 5 5 8 100 100 100
100 100 100 100 100 100 100 100 100 100 100 100 100 100 100 99 100 100 100 16 10 6 5 45 45 15 68 18 5 74 100 39 100
100 100 100 98 99 100 100 100 100 100 100 100 100 100 73 11 77 14 5 5 5 5 5 64 93 28 74 86 79 100 100 94 100
100 100 100 100 100 100 100 100 100 100 93 100 100 100 73 99 69 16 5 13 47 5 5 25 99 98 80 98 100 100 66 54 98
100 100 100 100 100 99 100 100 100 100 100 82 100 100 99 100 100 84 32 73 31 28 63 99 95 57 71 32 100 100 64 7 23
100 100 100 100 100 100 100 100 100 100 100 100 82 100 62 100 48 99 100 85 99 86 98 100 100 100 69 100 92 98 100 100 62

GFSFLT1_prec_cloud_108.txt.gz
Cloud_Cover
100 27 5 5 5 6 5 6 5 5 5 5 5 5 11 5 5 6 0 0 0 0 0 0 0 0 0 2 1 0 3 4 5
1 4 5 5 5 5 32 6 5 5 5 5 5 5 5 5 35 27 4 0 0 0 0 0 0 0 0 0 5 5 5 5 5
5 5 3 5 5 11 27 5 5 5 5 3 1 5 5 5 5 1 5 0 0 0 0 0 0 0 0 5 5 5 5 5 5
0 0 4 4 5 5 6 5 5 5 5 5 5 5 8 12 5 5 2 0 0 0 0 0 0 2 0 5 5 5 21 5 0
0 0 0 0 0 5 5 5 5 5 5 5 5 5 5 5 5 0 0 0 0 0 0 0 5 5 5 5 5 5 4 1 4
98 9 0 0 0 0 0 0 0 0 4 5 5 2 1 0 0 0 0 0 1 2 0 5 5 5 5 5 6 5 0 5 2
100 34 0 0 0 0 0 0 0 0 0 0 0 0 4 0 0 0 0 5 5 5 5 5 5 5 5 65 5 3 5 5 2
72 38 29 16 1 11 14 1 0 0 0 0 0 0 0 0 0 0 0 5 5 5 5 5 4 5 90 27 5 5 5 5 5
30 32 32 22 11 4 0 4 0 0 0 0 0 0 0 0 0 1 0 5 5 5 5 5 33 100 63 5 5 5 5 5 5
26 24 27 23 16 1 0 0 0 0 0 0 1 2 5 5 5 5 1 5 5 5 5 58 36 4 1 5 19 5 5 5 4
1 16 18 12 7 0 0 0 0 0 0 0 5 5 5 5 4 5 0 5 5 5 20 2 0 11 15 6 8 5 5 5 2
0 0 3 0 0 0 0 0 4 5 5 5 5 5 5 5 5 5 5 5 5 4 5 9 49 11 25 37 5 7 5 2 0
25 5 3 1 0 4 5 5 2 13 5 5 5 54 56 5 5 1 0 5 5 5 14 70 8 26 32 99 65 5 5 3 5
57 52 6 5 58 74 27 47 25 64 6 21 17 8 6 5 5 0 0 3 15 21 17 53 5 5 6 60 100 100 33 14 5
100 100 100 92 95 76 73 93 60 24 39 45 38 61 27 13 48 4 75 100 32 56 5 5 5 5 5 9 17 13 48 100 100
100 100 100 100 100 100 100 96 72 62 100 95 100 100 100 100 81 100 62 95 100 98 5 5 5 5 5 5 11 7 66 95 68
100 100 100 100 96 100 100 100 100 100 96 94 100 100 100 100 59 100 85 11 71 89 68 7 5 22 100 49 52 97 87 38 19
100 100 100 100 100 99 100 100 100 100 100 100 100 91 92 48 88 9 74 63 33 99 100 66 35 44 100 97 99 100 90 99 11
100 100 100 100 100 100 100 100 100 100 100 100 100 100 100 95 88 51 64 5 86 71 67 74 72 58 100 100 84 100 100 57 100
100 100 100 100 100 100 100 100 100 100 100 100 100 94 100 99 100 100 100 83 95 6 64 41 95 31 98 97 36 95 100 100 99

GFSFLT1_prec_cloud_111.txt.gz
Cloud_Cover
68 3 2 3 9 5 5 58 13 5 5 6 5 5 5 4 5 5 5 5 5 5 0 0 0 0 0 0 4 0 0 0 0
20 5 3 3 5 3 15 68 76 26 6 5 5 5 5 5 5 46 20 5 3 0 0 0 0 0 0 5 5 1 0 0 2
4 5 6 5 5 6 13 50 13 28 18 5 5 5 5 5 5 5 5 5 2 0 0 0 0 0 0 0 1 0 0 0 2
0 0 0 0 0 0 0 10 30 1 2 5 5 5 5 5 5 5 2 0 0 0 0 0 2 0 0 0 0 0 5 5 0
0 0 0 0 0 0 0 0 0 0 0 0 0 0 0 0 2 0 0 8 0 0 0 0 5 5 3 2 0 5 5 3 0
2 5 0 0 0 0 0 0 0 0 0 0 0 0 0 0 0 0 0 0 0 0 0 0 5 5 2 2 1 60 5 4 5
4 2 0 0 0 0 0 0 0 0 0 0 0 0 0 0 0 0 4 0 0 0 0 0 2 1 1 1 28 4 4 5 2
18 40 38 35 29 26 0 0 0 0 0 0 0 0 0 0 0 2 4 0 0 0 0 0 5 5 5 5 4 2 3 5 5
40 39 33 24 28 30 10 1 0 0 0 0 0 0 0 0 0 0 2 0 0 0 0 0 5 5 5 5 5 8 5 5 5
35 38 35 20 7 2 0 0 0 0 0 0 0 0 0 0 0 4 2 0 1 0 2 5 5 16 8 8 8 9 5 5 1
24 35 32 21 5 0 0 0 0 0 0 0 0 0 2 2 0 5 5 4 2 0 1 3 6 22 25 30 8 4 5 0 3
14 19 30 13 9 1 0 0 0 0 0 0 0 4 0 2 5 5 5 4 0 0 0 17 19 22 53 98 31 5 5 3 5
46 7 8 5 5 4 5 20 9 6 5 24 7 5 5 5 5 5 3 0 2 0 0 2 9 25 52 100 84 15 7 4 3
45 15 27 63 29 6 18 54 75 30 64 91 88 53 5 5 4 5 1 1 2 5 4 17 15 5 8 68 100 81 81 46 27
100 91 94 86 96 91 92 83 75 100 100 100 97 51 34 10 53 5 48 4 6 90 87 5 5 49 9 26 98 53 12 60 100
100 100 100 100 100 100 100 100 100 100 100 100 100 100 100 100 100 100 93 53 5 70 30 5 4 62 90 23 92 74 5 5 13
100 100 100 100 100 100 100 100 100 100 100 100 100 100 91 99 88 100 100 59 80 40 85 93 73 69 78 26 95 95 95 47 53
100 100 100 100 100 100 100 100 100 100 100 100 100 100 100 100 100 96 73 56 93 99 100 98 91 83 77 83 90 90 78 51 100
100 100 100 100 100 100 100 100 100 100 100 100 100 98 76 99 74 99 75 99 84 99 100 99 100 82 78 100 100 92 87 63 55
100 100 100 100 100 100 100 100 100 100 100 100 100 100 100 99 100 100 94 55 100 96 100 100 96 99 69 100 94 98 90 100 100

GFSFLT1_prec_cloud_117.txt.gz
Cloud_Cover
6 90 5 58 14 5 5 6 18 30 13 0 5 1 0 0 3 0 0 1 0 0 0 0 0 0 0 0 0 1 45 10 99
5 5 74 100 96 100 33 39 20 16 0 5 2 0 0 0 0 0 0 1 0 0 0 0 0 0 0 3 0 26 100 82 17
24 38 76 59 100 100 83 19 10 5 0 0 0 0 0 0 0 0 0 0 0 0 0 0 0 0 0 1 0 0 5 6 74
41 5 18 5 5 5 3 4 0 0 0 0 0 0 0 0 0 0 0 0 0 0 0 0 0 0 0 0 0 5 4 89 10
0 0 0 0 0 0 0 2 0 0 0 0 0 0 0 0 0 0 0 2 0 0 0 0 0 0 0 2 1 1 1 8 74
5 5 0 0 0 0 0 0 0 0 0 0 0 0 0 0 0 0 0 0 0 0 0 1 0 0 1 0 0 2 5 30 5
5 5 5 0 0 0 0 0 0 0 0 0 0 0 0 0 0 0 0 4 0 0 0 0 0 0 0 0 0 0 5 5 5
31 52 40 0 5 2 0 1 0 0 0 0 0 0 0 0 0 0 0 6 0 0 0 0 0 0 0 0 0 1 1 0 4
77 99 99 38 0 3 0 0 0 0 0 0 0 0 0 0 0 0 0 0 5 0 0 0 0 0 0 0 0 0 5 2 3
100 100 98 56 6 5 5 4 5 5 2 0 0 0 0 0 0 0 0 0 0 0 1 2 0 1 1 0 0 1 2 0 0
100 100 75 58 65 5 5 5 5 5 6 5 5 5 0 0 0 0 0 0 0 0 3 5 4 4 19 11 0 0 0 2 3
93 97 94 46 16 11 7 5 35 9 10 15 5 5 5 5 2 0 0 0 0 0 21 26 27 24 100 95 19 0 5 5 3
45 65 100 75 44 71 7 7 52 61 82 96 45 40 11 7 15 5 5 5 1 0 0 0 6 16 99 100 77 4 0 5 5
22 51 50 100 100 90 5 21 72 99 100 100 100 100 100 100 94 34 39 25 8 5 5 5 5 5 5 63 96 21 11 5 5
90 100 100 100 100 71 55 27 95 100 100 100 100 100 28 21 15 31 82 95 56 5 5 5 8 5 5 5 5 38 79 79 9
100 100 100 100 55 84 100 100 100 100 100 100 100 100 100 100 77 100 89 17 12 5 5 5 5 5 5 5 52 7 61 57 33
100 100 100 100 100 100 100 100 100 100 100 89 100 100 95 43 86 58 89 99 70 21 7 25 29 48 36 44 78 100 100 61 38
100 100 100 100 100 100 100 100 100 100 100 100 100 100 100 47 9 36 76 29 98 74 31 54 91 100 70 72 93 62 86 100 100
100 100 100 100 100 100 100 100 93 100 99 100 96 100 100 99 88 67 85 82 90 100 100 67 29 95 96 69 79 99 100 100 68
100 100 100 100 100 100 91 80 100 100 100 98 91 10 64 75 86 76 92 100 93 59 100 79 100 100 99 100 100 100 100 100 95

GFSFLT1_prec_cloud_120.txt.gz
Cloud_Cover
3 2 5 5 13 86 73 12 30 34 29 88 5 3 0 0 0 0 0 0 0 0 0 4 0 0 1 0 48 20 100 2 52
60 73 8 35 67 44 14 91 100 100 91 86 28 5 0 0 0 0 0 0 0 0 0 0 0 4 0 0 100 100 38 90 100
57 100 100 36 51 28 8 22 99 96 29 4 1 0 0 0 0 0 0 14 1 0 0 6 0 4 0 4 27 29 22 54 34
5 5 86 100 100 60 15 15 4 4 0 0 0 0 0 0 0 0 0 3 0 0 0 0 0 0 0 0 0 15 15 3 6
0 0 0 7 63 30 0 2 0 0 0 0 0 0 0 0 0 0 0 3 0 0 0 0 0 0 0 2 0 4 0 0 5
7 6 0 0 0 0 0 0 0 0 0 0 0 0 0 0 0 0 0 0 0 0 1 3 2 1 8 13 5 0 0 1 5
55 3 1 0 4 1 1 5 5 4 4 1 0 0 0 0 0 0 0 0 0 0 4 4 1 1 7 6 6 9 7 0 11
39 24 3 6 13 0 0 5 16 5 5 2 0 0 0 0 0 0 0 15 2 0 0 0 5 0 5 0 2 5 4 0 2
45 23 7 22 5 1 3 2 2 5 5 3 0 0 4 4 0 5 0 3 3 0 2 0 0 5 4 0 5 7 5 0 4
60 98 19 5 5 4 4 3 28 5 11 6 3 5 5 5 5 5 6 0 0 0 0 0 4 1 0 0 2 5 2 0 0
60 100 74 6 33 5 5 5 8 49 27 9 6 7 18 8 6 5 3 0 0 0 12 7 7 21 6 4 4 7 5 0 0
100 100 100 11 49 6 21 39 5 5 23 53 5 5 10 6 32 59 69 1 2 0 1 19 22 23 80 39 82 34 3 2 5
66 100 97 89 40 70 59 13 5 10 37 5 3 5 5 100 100 100 51 79 5 5 5 5 7 18 100 62 30 5 5 4 0
98 53 55 100 100 60 20 86 49 81 10 5 5 3 87 100 100 86 7 5 5 6 5 5 5 5 5 20 9 12 5 5 5
100 100 100 100 100 17 81 100 100 100 91 5 15 10 15 88 12 67 100 30 5 5 5 5 5 5 5 5 5 78 47 44 44
100 100 84 100 100 90 100 100 100 100 100 100 100 68 98 58 100 100 5 5 5 5 5 23 10 5 5 5 5 5 5 5 23
100 77 100 100 100 100 100 100 100 100 100 100 100 100 91 98 15 6 5 5 5 8 34 10 5 5 5 89 44 86 6 5 6
100 100 100 100 100 100 100 100 100 100 100 100 100 99 63 5 13 69 5 5 38 45 100 66 6 55 57 59 34 61 58 5 7
99 9 87 95 100 98 100 100 100 100 100 100 100 50 19 74 50 35 20 5 21 100 96 100 100 97 78 28 89 100 99 60 95
42 82 100 100 100 100 100 100 100 100 100 93 58 84 100 84 90 42 82 90 16 93 100 100 38 100 15 90 100 100 100 96 99

GFSFLT1_prec_cloud_123.txt.gz
Cloud_Cover
5 5 5 5 99 100 100 40 100 100 30 78 85 100 92 5 4 0 1 3 1 5 4 20 33 39 92 7 89 31 75 100 0
6 3 1 3 6 6 44 100 96 21 8 14 61 5 31 15 0 1 0 5 4 69 14 0 3 53 57 100 71 100 100 10 71
5 5 68 48 76 100 100 100 83 5 46 6 4 5 5 0 0 4 5 60 4 89 40 78 30 52 51 56 97 44 32 79 100
5 4 2 12 46 100 100 100 67 6 15 0 0 0 0 0 0 0 8 96 0 13 0 16 0 66 17 82 49 24 13 95 22
10 6 0 0 0 7 12 8 19 5 0 0 0 3 3 0 0 0 6 0 3 0 2 0 0 0 0 2 0 0 1 13 88
8 32 0 0 0 0 0 0 5 0 1 1 5 4 5 0 0 0 0 0 0 0 0 0 0 0 0 2 0 0 5 12 100
20 31 0 5 0 0 0 0 0 0 2 5 5 5 5 5 5 1 0 5 3 4 0 0 1 0 0 0 1 6 3 5 100
71 28 7 27 13 0 0 0 0 0 0 0 0 5 5 45 14 5 5 5 5 5 5 5 0 0 0 0 3 3 1 5 100
100 5 5 14 2 0 0 0 0 0 0 0 0 50 80 55 29 5 5 5 5 49 5 2 0 0 0 1 5 3 5 7 46
100 18 12 9 5 5 4 0 0 4 0 0 2 57 66 51 34 5 6 59 11 10 0 0 0 0 4 5 3 0 5 7 18
100 85 98 83 5 5 4 3 0 5 0 2 2 39 5 15 50 51 5 55 100 36 4 3 7 11 5 5 0 0 5 0 0
100 23 17 5 77 33 13 5 7 5 5 16 5 5 5 5 30 5 5 98 96 5 5 14 14 18 25 21 5 0 2 1 5
99 93 66 84 100 100 13 5 22 7 22 10 5 47 6 16 80 9 5 24 5 5 5 4 8 8 6 44 18 5 5 5 5
3 86 34 62 73 60 10 86 100 100 94 100 57 54 8 5 13 5 67 4 4 31 5 2 1 3 6 59 93 10 5 5 5
7 100 99 100 32 40 11 95 100 100 79 100 98 46 96 56 98 100 63 98 93 61 3 2 5 5 5 6 16 40 90 61 34
15 16 96 96 100 100 100 100 100 98 26 99 100 96 48 100 100 100 100 100 100 73 0 4 34 9 12 5 5 5 6 16 24
100 8 73 99 58 83 100 100 100 100 100 100 100 93 100 100 100 100 100 88 6 8 5 5 5 100 76 23 23 5 21 50 87
100 94 98 100 84 100 100 100 100 100 100 100 100 100 100 100 100 99 100 21 34 85 5 15 100 41 20 87 13 24 100 100 67
100 98 100 99 100 100 100 100 100 100 100 100 100 100 100 100 82 69 79 74 26 60 5 13 19 100 39 8 72 84 59 32 21
100 97 99 100 100 100 100 100 99 92 100 100 100 100 100 26 29 93 7 43 5 73 86 100 75 22 98 95 100 100 100 95 100

GFSFLT1_prec_cloud_126.txt.gz
Cloud_Cover
5 5 6 1 5 5 27 100 100 100 33 0 4 4 5 5 0 5 2 24 36 91 100 100 94 59 35 11 100 100 8 100 100
5 10 1 3 3 5 57 100 74 50 10 0 5 5 31 0 0 0 0 39 96 86 100 100 100 100 88 10 99 1 100 100 89
5 5 1 0 5 5 100 100 88 100 100 11 5 5 1 0 0 0 3 98 80 91 60 64 100 35 80 15 20 36 81 38 65
5 5 15 5 5 24 100 82 100 94 11 5 5 4 0 0 4 3 9 100 78 51 100 82 66 65 10 0 6 0 4 0 98
0 5 55 16 6 6 100 5 0 5 0 0 0 0 0 2 5 5 14 5 5 0 5 5 5 5 5 2 0 3 5 5 87
2 95 1 3 55 51 4 0 0 0 0 0 0 0 0 0 0 5 6 5 11 5 5 5 6 18 5 5 5 5 5 5 5
12 88 6 0 0 0 0 0 0 0 0 0 0 0 0 0 5 30 28 8 48 5 5 7 28 75 6 5 26 83 5 5 4
23 56 64 38 4 0 0 0 0 0 0 4 0 0 0 0 4 5 66 26 79 36 5 5 4 5 11 93 99 96 5 1 5
84 69 95 42 10 0 0 0 0 0 0 0 0 0 0 0 2 58 48 18 52 6 9 54 6 18 41 100 94 39 4 4 5
20 46 28 5 5 0 0 0 0 0 0 0 0 0 0 0 2 5 5 21 7 72 22 61 29 19 63 66 5 2 0 5 5
97 13 5 67 3 3 2 5 2 0 0 3 0 1 2 5 5 5 5 5 5 18 5 7 4 5 6 2 0 0 0 4 5
100 16 41 43 5 89 98 8 5 5 6 5 5 5 3 2 5 5 5 20 50 54 14 19 26 23 36 32 2 0 3 5 5
100 40 8 5 17 1 31 5 5 77 100 5 5 5 2 5 5 5 83 47 52 57 55 51 6 12 64 57 47 5 4 5 5
100 74 4 18 11 94 83 8 41 100 98 5 17 47 33 72 54 61 100 67 100 100 98 100 77 40 5 21 100 93 5 5 14
100 94 1 4 22 100 100 100 65 76 38 22 100 100 100 100 98 99 100 100 100 83 30 80 66 5 5 5 59 48 26 22 71
100 42 79 86 54 5 5 8 100 100 14 99 100 100 100 100 100 100 100 100 100 41 98 46 99 5 8 99 16 95 78 61 89
100 44 100 100 100 59 5 8 89 100 69 100 100 100 52 100 100 100 100 100 76 95 69 91 52 5 32 26 100 100 89 80 100
100 100 100 100 100 85 10 72 78 100 81 100 100 100 98 100 100 100 100 94 99 71 18 5 5 5 21 36 86 42 91 97 32
100 100 100 100 100 100 100 98 100 99 94 100 100 100 100 100 100 100 100 100 94 90 5 5 7 30 19 8 5 100 88 96 95
100 100 100 100 100 100 100 100 99 100 100 100 100 100 100 100 100 100 100 31 32 5 5 0 4 95 93 30 26 30 100 78 100